Time,TemperatureF,DewpointF,PressureIn,WindDirection,WindDirectionDegrees,WindSpeedMPH,WindSpeedGustMPH,Humidity,HourlyPrecipIn,Conditions,Clouds,dailyrainin,SolarRadiationWatts/m^2,SoftwareType,DateUTC
2013-04-09 00:00:00,74.2,67.6,30.08,NE,48,4.0,6.0,80,0.00,,FEW,0.00,0.00,VWS V14.01,2013-04-09 04:00:00,
2013-04-09 00:05:00,74.2,67.6,30.08,ENE,73,2.0,5.0,80,0.00,,FEW,0.00,0.00,VWS V14.01,2013-04-09 04:05:00,
2013-04-09 00:06:00,74.2,68.0,30.08,NE,34,2.0,5.0,81,0.00,,FEW,0.00,0.00,VWS V14.01,2013-04-09 04:06:00,
2013-04-09 00:10:00,74.2,68.0,30.08,ENE,71,1.0,5.0,81,0.00,,FEW,0.00,0.00,VWS V14.01,2013-04-09 04:10:00,
2013-04-09 00:11:00,74.2,68.0,30.08,East,86,5.0,7.0,81,0.00,,FEW,0.00,0.00,VWS V14.01,2013-04-09 04:11:00,
2013-04-09 00:15:00,74.2,68.0,30.08,ENE,62,2.0,8.0,81,0.00,,FEW,0.00,0.00,VWS V14.01,2013-04-09 04:15:00,
2013-04-09 00:16:00,74.2,68.0,30.08,East,96,2.0,8.0,81,0.00,,FEW,0.00,0.00,VWS V14.01,2013-04-09 04:16:00,
2013-04-09 00:17:00,74.2,68.0,30.08,ESE,111,5.0,8.0,81,0.00,,FEW,0.00,0.00,VWS V14.01,2013-04-09 04:17:00,
2013-04-09 00:20:00,74.1,67.9,30.08,ENE,75,4.0,8.0,81,0.00,,FEW,0.00,0.00,VWS V14.01,2013-04-09 04:20:00,
2013-04-09 00:21:00,74.1,67.9,30.08,East,86,3.0,8.0,81,0.00,,FEW,0.00,0.00,VWS V14.01,2013-04-09 04:21:00,
2013-04-09 00:22:00,74.1,67.9,30.08,East,86,2.0,8.0,81,0.00,,FEW,0.00,0.00,VWS V14.01,2013-04-09 04:22:00,
2013-04-09 00:25:00,74.2,68.0,30.08,ENE,73,2.0,4.0,81,0.00,,FEW,0.00,0.00,VWS V14.01,2013-04-09 04:25:00,
2013-04-09 00:26:00,74.2,68.0,30.08,NE,40,3.0,5.0,81,0.00,,FEW,0.00,0.00,VWS V14.01,2013-04-09 04:26:00,
2013-04-09 00:27:00,74.2,68.0,30.08,NE,55,3.0,6.0,81,0.00,,FEW,0.00,0.00,VWS V14.01,2013-04-09 04:27:00,
2013-04-09 00:30:00,74.2,68.0,30.08,NE,51,4.0,7.0,81,0.00,,FEW,0.00,0.00,VWS V14.01,2013-04-09 04:30:00,
2013-04-09 00:32:00,74.2,67.6,30.08,East,86,1.0,7.0,80,0.00,,FEW,0.00,0.00,VWS V14.01,2013-04-09 04:32:00,
2013-04-09 00:36:00,74.2,68.0,30.08,ENE,57,3.0,7.0,81,0.00,,FEW,0.00,0.00,VWS V14.01,2013-04-09 04:36:00,
2013-04-09 00:37:00,74.2,67.6,30.08,East,82,2.0,7.0,80,0.00,,FEW,0.00,0.00,VWS V14.01,2013-04-09 04:37:00,
2013-04-09 00:41:00,74.3,67.7,30.08,NNE,26,3.0,7.0,80,0.00,,FEW,0.00,0.00,VWS V14.01,2013-04-09 04:41:00,
2013-04-09 00:42:00,74.3,67.7,30.08,East,88,3.0,7.0,80,0.00,,FEW,0.00,0.00,VWS V14.01,2013-04-09 04:42:00,
2013-04-09 00:46:00,74.3,67.7,30.08,East,83,3.0,6.0,80,0.00,,FEW,0.00,0.00,VWS V14.01,2013-04-09 04:46:00,
2013-04-09 00:47:00,74.3,68.1,30.08,ESE,123,2.0,6.0,81,0.00,,FEW,0.00,0.00,VWS V14.01,2013-04-09 04:47:00,
2013-04-09 00:51:00,74.3,67.7,30.08,ESE,113,3.0,7.0,80,0.00,,FEW,0.00,0.00,VWS V14.01,2013-04-09 04:51:00,
2013-04-09 00:52:00,74.4,67.8,30.08,ENE,64,3.0,7.0,80,0.00,,FEW,0.00,0.00,VWS V14.01,2013-04-09 04:52:00,
2013-04-09 00:56:00,74.3,68.1,30.08,East,84,5.0,7.0,81,0.00,,FEW,0.00,0.00,VWS V14.01,2013-04-09 04:56:00,
2013-04-09 00:57:00,74.3,68.1,30.08,East,84,5.0,7.0,81,0.00,,FEW,0.00,0.00,VWS V14.01,2013-04-09 04:57:00,
2013-04-09 00:58:00,74.4,68.2,30.08,NE,53,2.0,7.0,81,0.00,,FEW,0.00,0.00,VWS V14.01,2013-04-09 04:58:00,
2013-04-09 01:02:00,74.4,68.2,30.08,East,82,3.0,7.0,81,0.00,,FEW,0.00,0.00,VWS V14.01,2013-04-09 05:02:00,
2013-04-09 01:03:00,74.4,68.2,30.08,ENE,61,2.0,5.0,81,0.00,,FEW,0.00,0.00,VWS V14.01,2013-04-09 05:03:00,
2013-04-09 01:07:00,74.4,68.2,30.08,ENE,59,2.0,7.0,81,0.00,,FEW,0.00,0.00,VWS V14.01,2013-04-09 05:07:00,
2013-04-09 01:08:00,74.4,68.2,30.08,East,82,7.0,8.0,81,0.00,,FEW,0.00,0.00,VWS V14.01,2013-04-09 05:08:00,
2013-04-09 01:12:00,74.4,68.2,30.08,NE,53,4.0,8.0,81,0.00,,FEW,0.00,0.00,VWS V14.01,2013-04-09 05:12:00,
2013-04-09 01:13:00,74.5,68.3,30.08,ENE,65,2.0,3.0,81,0.00,,FEW,0.00,0.00,VWS V14.01,2013-04-09 05:13:00,
2013-04-09 01:17:00,74.5,68.7,30.08,ESE,109,2.0,5.0,82,0.00,,FEW,0.00,0.00,VWS V14.01,2013-04-09 05:17:00,
2013-04-09 01:18:00,74.5,68.7,30.08,ESE,109,2.0,5.0,82,0.00,,FEW,0.00,0.00,VWS V14.01,2013-04-09 05:18:00,
2013-04-09 01:22:00,74.5,68.7,30.08,East,90,3.0,3.0,82,0.00,,FEW,0.00,0.00,VWS V14.01,2013-04-09 05:22:00,
2013-04-09 01:23:00,74.5,68.7,30.08,East,96,5.0,5.0,82,0.00,,FEW,0.00,0.00,VWS V14.01,2013-04-09 05:23:00,
2013-04-09 01:28:00,74.5,68.3,30.08,ENE,65,2.0,5.0,81,0.00,,FEW,0.00,0.00,VWS V14.01,2013-04-09 05:28:00,
2013-04-09 01:33:00,74.5,68.7,30.07,East,80,2.0,2.0,82,0.00,,FEW,0.00,0.00,VWS V14.01,2013-04-09 05:33:00,
2013-04-09 01:38:00,74.6,68.8,30.07,ESE,108,1.0,8.0,82,0.00,,FEW,0.00,0.00,VWS V14.01,2013-04-09 05:38:00,
2013-04-09 01:43:00,74.6,68.8,30.07,ENE,64,4.0,4.0,82,0.00,,FEW,0.00,0.00,VWS V14.01,2013-04-09 05:43:00,
2013-04-09 01:48:00,74.7,68.8,30.06,ENE,75,3.0,7.0,82,0.00,,FEW,0.00,0.00,VWS V14.01,2013-04-09 05:48:00,
2013-04-09 01:49:00,74.7,68.8,30.06,ENE,66,2.0,7.0,82,0.00,,FEW,0.00,0.00,VWS V14.01,2013-04-09 05:49:00,
2013-04-09 01:53:00,74.7,69.2,30.06,NE,50,2.0,6.0,83,0.00,,FEW,0.00,0.00,VWS V14.01,2013-04-09 05:53:00,
2013-04-09 01:54:00,74.8,69.3,30.06,NE,56,3.0,6.0,83,0.00,,FEW,0.00,0.00,VWS V14.01,2013-04-09 05:54:00,
2013-04-09 01:58:00,74.8,68.9,30.06,ENE,71,3.0,8.0,82,0.00,,FEW,0.00,0.00,VWS V14.01,2013-04-09 05:58:00,
2013-04-09 01:59:00,74.8,68.9,30.06,ENE,74,1.0,8.0,82,0.00,,FEW,0.00,0.00,VWS V14.01,2013-04-09 05:59:00,
2013-04-09 02:03:00,74.8,68.9,30.05,ENE,69,3.0,5.0,82,0.00,,FEW,0.00,0.00,VWS V14.01,2013-04-09 06:03:00,
2013-04-09 02:04:00,74.8,68.9,30.05,NE,46,2.0,5.0,82,0.00,,FEW,0.00,0.00,VWS V14.01,2013-04-09 06:04:00,
2013-04-09 02:05:00,74.8,68.9,30.05,NE,46,0.0,5.0,82,0.00,,FEW,0.00,0.00,VWS V14.01,2013-04-09 06:05:00,
2013-04-09 02:08:00,74.8,68.9,30.05,East,79,6.0,7.0,82,0.00,,FEW,0.00,0.00,VWS V14.01,2013-04-09 06:08:00,
2013-04-09 02:10:00,74.8,68.9,30.05,East,96,6.0,7.0,82,0.00,,FEW,0.00,0.00,VWS V14.01,2013-04-09 06:10:00,
2013-04-09 02:13:00,74.8,68.9,30.05,NE,56,4.0,5.0,82,0.00,,FEW,0.00,0.00,VWS V14.01,2013-04-09 06:13:00,
2013-04-09 02:15:00,74.8,68.9,30.05,East,91,2.0,5.0,82,0.00,,FEW,0.00,0.00,VWS V14.01,2013-04-09 06:15:00,
2013-04-09 02:19:00,74.8,68.9,30.05,ENE,78,4.0,7.0,82,0.00,,FEW,0.00,0.00,VWS V14.01,2013-04-09 06:19:00,
2013-04-09 02:20:00,74.9,69.0,30.05,East,101,3.0,7.0,82,0.00,,FEW,0.00,0.00,VWS V14.01,2013-04-09 06:20:00,
2013-04-09 02:21:00,74.8,68.9,30.05,NE,51,1.0,7.0,82,0.00,,FEW,0.00,0.00,VWS V14.01,2013-04-09 06:21:00,
2013-04-09 02:24:00,74.8,68.9,30.05,ENE,71,2.0,2.0,82,0.00,,FEW,0.00,0.00,VWS V14.01,2013-04-09 06:24:00,
2013-04-09 02:25:00,74.8,68.9,30.05,NE,50,2.0,4.0,82,0.00,,FEW,0.00,0.00,VWS V14.01,2013-04-09 06:25:00,
2013-04-09 02:26:00,74.8,68.9,30.05,East,86,2.0,4.0,82,0.00,,FEW,0.00,0.00,VWS V14.01,2013-04-09 06:26:00,
2013-04-09 02:29:00,74.8,68.9,30.05,East,86,1.0,5.0,82,0.00,,FEW,0.00,0.00,VWS V14.01,2013-04-09 06:29:00,
2013-04-09 02:30:00,74.8,68.9,30.05,NE,52,1.0,5.0,82,0.00,,FEW,0.00,0.00,VWS V14.01,2013-04-09 06:30:00,
2013-04-09 02:31:00,74.8,68.9,30.05,ENE,74,3.0,5.0,82,0.00,,FEW,0.00,0.00,VWS V14.01,2013-04-09 06:31:00,
2013-04-09 02:34:00,74.7,68.8,30.04,SE,138,2.0,8.0,82,0.00,,FEW,0.00,0.00,VWS V14.01,2013-04-09 06:34:00,
2013-04-09 02:35:00,74.7,68.8,30.04,ENE,74,4.0,8.0,82,0.00,,FEW,0.00,0.00,VWS V14.01,2013-04-09 06:35:00,
2013-04-09 02:36:00,74.7,68.8,30.04,East,98,0.0,8.0,82,0.00,,FEW,0.00,0.00,VWS V14.01,2013-04-09 06:36:00,
2013-04-09 02:40:00,74.7,68.8,30.04,ENE,77,1.0,8.0,82,0.00,,FEW,0.00,0.00,VWS V14.01,2013-04-09 06:40:00,
2013-04-09 02:42:00,74.7,68.8,30.04,ESE,114,1.0,8.0,82,0.00,,FEW,0.00,0.00,VWS V14.01,2013-04-09 06:42:00,
2013-04-09 02:45:00,74.6,69.1,30.04,ENE,64,4.0,5.0,83,0.00,,FEW,0.00,0.00,VWS V14.01,2013-04-09 06:45:00,
2013-04-09 02:46:00,74.6,69.1,30.04,ENE,76,4.0,7.0,83,0.00,,FEW,0.00,0.00,VWS V14.01,2013-04-09 06:46:00,
2013-04-09 02:47:00,74.7,69.2,30.03,NE,51,5.0,7.0,83,0.00,,FEW,0.00,0.00,VWS V14.01,2013-04-09 06:47:00,
2013-04-09 02:50:00,74.7,69.2,30.03,ESE,114,4.0,7.0,83,0.00,,FEW,0.00,0.00,VWS V14.01,2013-04-09 06:50:00,
2013-04-09 02:51:00,74.7,69.2,30.03,ENE,69,2.0,7.0,83,0.00,,FEW,0.00,0.00,VWS V14.01,2013-04-09 06:51:00,
2013-04-09 02:52:00,74.7,69.2,30.03,ENE,73,3.0,7.0,83,0.00,,FEW,0.00,0.00,VWS V14.01,2013-04-09 06:52:00,
2013-04-09 02:55:00,74.7,69.2,30.03,East,80,5.0,8.0,83,0.00,,FEW,0.00,0.00,VWS V14.01,2013-04-09 06:55:00,
2013-04-09 02:56:00,74.7,69.2,30.03,East,84,2.0,8.0,83,0.00,,FEW,0.00,0.00,VWS V14.01,2013-04-09 06:56:00,
2013-04-09 02:57:00,74.7,69.2,30.03,ESE,119,2.0,8.0,83,0.00,,FEW,0.00,0.00,VWS V14.01,2013-04-09 06:57:00,
2013-04-09 03:00:00,74.8,69.3,30.03,ENE,66,3.0,8.0,83,0.00,,FEW,0.00,0.00,VWS V14.01,2013-04-09 07:00:00,
2013-04-09 03:01:00,74.8,69.3,30.03,East,84,2.0,8.0,83,0.00,,FEW,0.00,0.00,VWS V14.01,2013-04-09 07:01:00,
2013-04-09 03:02:00,74.7,69.2,30.03,East,86,1.0,8.0,83,0.00,,FEW,0.00,0.00,VWS V14.01,2013-04-09 07:02:00,
2013-04-09 03:05:00,74.7,69.2,30.03,ENE,73,2.0,3.0,83,0.00,,FEW,0.00,0.00,VWS V14.01,2013-04-09 07:05:00,
2013-04-09 03:06:00,74.7,69.2,30.03,East,84,5.0,5.0,83,0.00,,FEW,0.00,0.00,VWS V14.01,2013-04-09 07:06:00,
2013-04-09 03:07:00,74.7,69.2,30.03,ESE,116,2.0,5.0,83,0.00,,FEW,0.00,0.00,VWS V14.01,2013-04-09 07:07:00,
2013-04-09 03:10:00,74.7,69.2,30.03,ENE,69,2.0,5.0,83,0.00,,FEW,0.00,0.00,VWS V14.01,2013-04-09 07:10:00,
2013-04-09 03:11:00,74.7,69.2,30.03,East,92,1.0,5.0,83,0.00,,FEW,0.00,0.00,VWS V14.01,2013-04-09 07:11:00,
2013-04-09 03:12:00,74.7,69.2,30.03,ENE,65,4.0,4.0,83,0.00,,FEW,0.00,0.00,VWS V14.01,2013-04-09 07:12:00,
2013-04-09 03:15:00,74.7,69.2,30.03,NE,50,1.0,4.0,83,0.00,,FEW,0.00,0.00,VWS V14.01,2013-04-09 07:15:00,
2013-04-09 03:16:00,74.6,69.1,30.02,ENE,67,3.0,5.0,83,0.00,,FEW,0.00,0.00,VWS V14.01,2013-04-09 07:16:00,
2013-04-09 03:17:00,74.6,69.1,30.02,East,96,2.0,5.0,83,0.00,,FEW,0.00,0.00,VWS V14.01,2013-04-09 07:17:00,
2013-04-09 03:18:00,74.6,69.1,30.02,ENE,61,3.0,5.0,83,0.00,,FEW,0.00,0.00,VWS V14.01,2013-04-09 07:18:00,
2013-04-09 03:20:00,74.6,69.1,30.02,ENE,64,3.0,5.0,83,0.00,,FEW,0.00,0.00,VWS V14.01,2013-04-09 07:20:00,
2013-04-09 03:22:00,74.6,69.1,30.02,ESE,111,3.0,5.0,83,0.00,,FEW,0.00,0.00,VWS V14.01,2013-04-09 07:22:00,
2013-04-09 03:23:00,74.6,69.1,30.02,SE,128,3.0,4.0,83,0.00,,FEW,0.00,0.00,VWS V14.01,2013-04-09 07:23:00,
2013-04-09 03:25:00,74.5,69.0,30.02,SE,136,1.0,5.0,83,0.00,,FEW,0.00,0.00,VWS V14.01,2013-04-09 07:25:00,
2013-04-09 03:27:00,74.6,69.1,30.02,ENE,59,3.0,5.0,83,0.00,,FEW,0.00,0.00,VWS V14.01,2013-04-09 07:27:00,
2013-04-09 03:28:00,74.6,69.1,30.02,ENE,57,1.0,5.0,83,0.00,,FEW,0.00,0.00,VWS V14.01,2013-04-09 07:28:00,
2013-04-09 03:30:00,74.6,69.1,30.02,East,95,7.0,7.0,83,0.00,,FEW,0.00,0.00,VWS V14.01,2013-04-09 07:30:00,
2013-04-09 03:32:00,74.6,69.1,30.02,ESE,105,3.0,7.0,83,0.00,,FEW,0.00,0.00,VWS V14.01,2013-04-09 07:32:00,
2013-04-09 03:33:00,74.6,69.1,30.02,East,80,3.0,4.0,83,0.00,,FEW,0.00,0.00,VWS V14.01,2013-04-09 07:33:00,
2013-04-09 03:36:00,74.7,69.2,30.02,ENE,69,1.0,4.0,83,0.00,,FEW,0.00,0.00,VWS V14.01,2013-04-09 07:36:00,
2013-04-09 03:37:00,74.7,69.2,30.02,East,87,3.0,5.0,83,0.00,,FEW,0.00,0.00,VWS V14.01,2013-04-09 07:37:00,
2013-04-09 03:38:00,74.7,69.2,30.02,East,79,2.0,5.0,83,0.00,,FEW,0.00,0.00,VWS V14.01,2013-04-09 07:38:00,
2013-04-09 03:41:00,74.7,69.2,30.02,ENE,69,4.0,6.0,83,0.00,,FEW,0.00,0.00,VWS V14.01,2013-04-09 07:41:00,
2013-04-09 03:43:00,74.7,69.2,30.02,East,92,1.0,3.0,83,0.00,,FEW,0.00,0.00,VWS V14.01,2013-04-09 07:43:00,
2013-04-09 03:44:00,74.7,69.2,30.02,ENE,73,0.0,3.0,83,0.00,,FEW,0.00,0.00,VWS V14.01,2013-04-09 07:44:00,
2013-04-09 03:46:00,74.7,69.2,30.02,ENE,65,2.0,3.0,83,0.00,,FEW,0.00,0.00,VWS V14.01,2013-04-09 07:46:00,
2013-04-09 03:48:00,74.7,69.2,30.02,ESE,103,2.0,5.0,83,0.00,,FEW,0.00,0.00,VWS V14.01,2013-04-09 07:48:00,
2013-04-09 03:49:00,74.7,69.2,30.02,ENE,74,3.0,5.0,83,0.00,,FEW,0.00,0.00,VWS V14.01,2013-04-09 07:49:00,
2013-04-09 03:52:00,74.7,69.2,30.02,ESE,123,3.0,5.0,83,0.00,,FEW,0.00,0.00,VWS V14.01,2013-04-09 07:52:00,
2013-04-09 03:53:00,74.7,69.2,30.02,East,81,2.0,3.0,83,0.00,,FEW,0.00,0.00,VWS V14.01,2013-04-09 07:53:00,
2013-04-09 03:54:00,74.7,69.2,30.02,East,80,2.0,5.0,83,0.00,,FEW,0.00,0.00,VWS V14.01,2013-04-09 07:54:00,
2013-04-09 03:57:00,74.7,69.2,30.02,ESE,112,2.0,6.0,83,0.00,,FEW,0.00,0.00,VWS V14.01,2013-04-09 07:57:00,
2013-04-09 03:58:00,74.7,69.2,30.02,East,79,1.0,6.0,83,0.00,,FEW,0.00,0.00,VWS V14.01,2013-04-09 07:58:00,
2013-04-09 03:59:00,74.7,69.2,30.02,East,92,5.0,6.0,83,0.00,,FEW,0.00,0.00,VWS V14.01,2013-04-09 07:59:00,
2013-04-09 04:02:00,74.7,68.8,30.02,East,92,3.0,6.0,82,0.00,,FEW,0.00,0.00,VWS V14.01,2013-04-09 08:02:00,
2013-04-09 04:03:00,74.7,68.8,30.02,ENE,73,1.0,2.0,82,0.00,,FEW,0.00,0.00,VWS V14.01,2013-04-09 08:03:00,
2013-04-09 04:04:00,74.7,68.8,30.02,ENE,74,1.0,2.0,82,0.00,,FEW,0.00,0.00,VWS V14.01,2013-04-09 08:04:00,
2013-04-09 04:07:00,74.7,69.2,30.02,ESE,110,3.0,4.0,83,0.00,,FEW,0.00,0.00,VWS V14.01,2013-04-09 08:07:00,
2013-04-09 04:08:00,74.7,69.2,30.02,East,95,2.0,4.0,83,0.00,,FEW,0.00,0.00,VWS V14.01,2013-04-09 08:08:00,
2013-04-09 04:09:00,74.7,69.2,30.02,ENE,63,0.0,4.0,83,0.00,,FEW,0.00,0.00,VWS V14.01,2013-04-09 08:09:00,
2013-04-09 04:12:00,74.7,69.2,30.02,ENE,70,2.0,4.0,83,0.00,,FEW,0.00,0.00,VWS V14.01,2013-04-09 08:12:00,
2013-04-09 04:13:00,74.7,69.2,30.02,NE,51,1.0,2.0,83,0.00,,FEW,0.00,0.00,VWS V14.01,2013-04-09 08:13:00,
2013-04-09 04:14:00,74.7,69.2,30.02,ENE,64,0.0,2.0,83,0.00,,FEW,0.00,0.00,VWS V14.01,2013-04-09 08:14:00,
2013-04-09 04:15:00,74.7,69.2,30.02,ENE,64,1.0,2.0,83,0.00,,FEW,0.00,0.00,VWS V14.01,2013-04-09 08:15:00,
2013-04-09 04:17:00,74.6,69.1,30.02,East,81,3.0,6.0,83,0.00,,FEW,0.00,0.00,VWS V14.01,2013-04-09 08:17:00,
2013-04-09 04:18:00,74.7,69.2,30.02,East,82,1.0,6.0,83,0.00,,FEW,0.00,0.00,VWS V14.01,2013-04-09 08:18:00,
2013-04-09 04:19:00,74.6,69.1,30.02,ESE,103,3.0,6.0,83,0.00,,FEW,0.00,0.00,VWS V14.01,2013-04-09 08:19:00,
2013-04-09 04:20:00,74.6,69.1,30.02,ESE,103,1.0,6.0,83,0.00,,FEW,0.00,0.00,VWS V14.01,2013-04-09 08:20:00,
2013-04-09 04:22:00,74.6,69.1,30.02,ESE,103,1.0,2.0,83,0.00,,FEW,0.00,0.00,VWS V14.01,2013-04-09 08:22:00,
2013-04-09 04:23:00,74.6,69.1,30.02,ESE,103,0.0,2.0,83,0.00,,FEW,0.00,0.00,VWS V14.01,2013-04-09 08:23:00,
2013-04-09 04:24:00,74.6,69.1,30.02,East,81,2.0,3.0,83,0.00,,FEW,0.00,0.00,VWS V14.01,2013-04-09 08:24:00,
2013-04-09 04:25:00,74.6,69.1,30.02,ENE,63,0.0,3.0,83,0.00,,FEW,0.00,0.00,VWS V14.01,2013-04-09 08:25:00,
2013-04-09 04:28:00,74.5,69.0,30.02,East,98,2.0,3.0,83,0.00,,FEW,0.00,0.00,VWS V14.01,2013-04-09 08:28:00,
2013-04-09 04:30:00,74.5,69.3,30.02,ENE,70,1.0,5.0,84,0.00,,FEW,0.00,0.00,VWS V14.01,2013-04-09 08:30:00,
2013-04-09 04:33:00,74.5,69.3,30.02,NE,55,4.0,4.0,84,0.00,,FEW,0.00,0.00,VWS V14.01,2013-04-09 08:33:00,
2013-04-09 04:35:00,74.5,69.3,30.02,ENE,74,1.0,4.0,84,0.00,,FEW,0.00,0.00,VWS V14.01,2013-04-09 08:35:00,
2013-04-09 04:38:00,74.5,69.3,30.02,ENE,78,1.0,4.0,84,0.00,,FEW,0.00,0.00,VWS V14.01,2013-04-09 08:38:00,
2013-04-09 04:40:00,74.5,69.3,30.02,ENE,78,0.0,4.0,84,0.00,,FEW,0.00,0.00,VWS V14.01,2013-04-09 08:40:00,
2013-04-09 04:43:00,74.5,69.7,30.02,East,82,1.0,3.0,85,0.00,,FEW,0.00,0.00,VWS V14.01,2013-04-09 08:43:00,
2013-04-09 04:45:00,74.5,69.7,30.02,East,82,0.0,3.0,85,0.00,,FEW,0.00,0.00,VWS V14.01,2013-04-09 08:45:00,
2013-04-09 04:48:00,74.5,69.7,30.02,East,82,0.0,3.0,85,0.00,,FEW,0.00,0.00,VWS V14.01,2013-04-09 08:48:00,
2013-04-09 04:49:00,74.5,69.7,30.02,East,82,0.0,3.0,85,0.00,,FEW,0.00,0.00,VWS V14.01,2013-04-09 08:49:00,
2013-04-09 04:50:00,74.5,69.7,30.02,East,82,0.0,3.0,85,0.00,,FEW,0.00,0.00,VWS V14.01,2013-04-09 08:50:00,
2013-04-09 04:54:00,74.5,69.7,30.02,ENE,59,2.0,2.0,85,0.00,,FEW,0.00,0.00,VWS V14.01,2013-04-09 08:54:00,
2013-04-09 04:55:00,74.5,69.7,30.02,ENE,59,0.0,2.0,85,0.00,,FEW,0.00,0.00,VWS V14.01,2013-04-09 08:55:00,
2013-04-09 04:59:00,74.4,69.6,30.02,ENE,65,2.0,2.0,85,0.00,,FEW,0.00,0.00,VWS V14.01,2013-04-09 08:59:00,
2013-04-09 05:00:00,74.4,69.6,30.02,NE,49,1.0,2.0,85,0.00,,FEW,0.00,0.00,VWS V14.01,2013-04-09 09:00:00,
2013-04-09 05:05:00,74.4,69.9,30.02,East,90,1.0,2.0,86,0.00,,FEW,0.00,0.00,VWS V14.01,2013-04-09 09:05:00,
2013-04-09 05:06:00,74.5,70.0,30.02,East,98,2.0,2.0,86,0.00,,FEW,0.00,0.00,VWS V14.01,2013-04-09 09:06:00,
2013-04-09 05:07:00,74.4,69.9,30.02,East,98,0.0,2.0,86,0.00,,FEW,0.00,0.00,VWS V14.01,2013-04-09 09:07:00,
2013-04-09 05:10:00,74.4,69.9,30.02,ESE,108,1.0,5.0,86,0.00,,FEW,0.00,0.00,VWS V14.01,2013-04-09 09:10:00,
2013-04-09 05:12:00,74.5,70.0,30.02,ENE,65,2.0,5.0,86,0.00,,FEW,0.00,0.00,VWS V14.01,2013-04-09 09:12:00,
2013-04-09 05:15:00,74.5,70.0,30.02,ENE,73,3.0,3.0,86,0.00,,FEW,0.00,0.00,VWS V14.01,2013-04-09 09:15:00,
2013-04-09 05:17:00,74.5,70.0,30.02,East,100,0.0,3.0,86,0.00,,FEW,0.00,0.00,VWS V14.01,2013-04-09 09:17:00,
2013-04-09 05:20:00,74.5,70.4,30.02,East,100,0.0,3.0,87,0.00,,FEW,0.00,0.00,VWS V14.01,2013-04-09 09:20:00,
2013-04-09 05:22:00,74.5,70.4,30.02,East,82,2.0,3.0,87,0.00,,FEW,0.00,0.00,VWS V14.01,2013-04-09 09:22:00,
2013-04-09 05:25:00,74.5,70.4,30.02,East,86,2.0,4.0,87,0.00,,FEW,0.00,0.00,VWS V14.01,2013-04-09 09:25:00,
2013-04-09 05:27:00,74.5,70.4,30.02,ESE,108,1.0,4.0,87,0.00,,FEW,0.00,0.00,VWS V14.01,2013-04-09 09:27:00,
2013-04-09 05:30:00,74.5,70.4,30.02,ENE,77,0.0,4.0,87,0.00,,FEW,0.00,0.00,VWS V14.01,2013-04-09 09:30:00,
2013-04-09 05:31:00,74.5,70.4,30.02,East,80,2.0,4.0,87,0.00,,FEW,0.00,0.00,VWS V14.01,2013-04-09 09:31:00,
2013-04-09 05:32:00,74.5,70.4,30.03,East,84,0.0,4.0,87,0.00,,FEW,0.00,0.00,VWS V14.01,2013-04-09 09:32:00,
2013-04-09 05:33:00,74.5,70.4,30.03,East,84,0.0,0.0,87,0.00,,FEW,0.00,0.00,VWS V14.01,2013-04-09 09:33:00,
2013-04-09 05:35:00,74.5,70.4,30.03,ESE,105,1.0,4.0,87,0.00,,FEW,0.00,0.00,VWS V14.01,2013-04-09 09:35:00,
2013-04-09 05:36:00,74.5,70.4,30.03,ENE,72,3.0,4.0,87,0.00,,FEW,0.00,0.00,VWS V14.01,2013-04-09 09:36:00,
2013-04-09 05:37:00,74.5,70.4,30.03,ESE,119,1.0,4.0,87,0.00,,FEW,0.00,0.00,VWS V14.01,2013-04-09 09:37:00,
2013-04-09 05:38:00,74.5,70.4,30.03,ESE,119,0.0,4.0,87,0.00,,FEW,0.00,0.00,VWS V14.01,2013-04-09 09:38:00,
2013-04-09 05:40:00,74.5,70.4,30.03,East,80,2.0,4.0,87,0.00,,FEW,0.00,0.00,VWS V14.01,2013-04-09 09:40:00,
2013-04-09 05:41:00,74.5,70.4,30.03,East,88,2.0,4.0,87,0.00,,FEW,0.00,0.00,VWS V14.01,2013-04-09 09:41:00,
2013-04-09 05:42:00,74.6,70.5,30.03,ESE,104,2.0,2.0,87,0.00,,FEW,0.00,0.00,VWS V14.01,2013-04-09 09:42:00,
2013-04-09 05:43:00,74.5,70.4,30.03,ESE,104,0.0,2.0,87,0.00,,FEW,0.00,0.00,VWS V14.01,2013-04-09 09:43:00,
2013-04-09 05:45:00,74.5,70.4,30.03,East,92,0.0,3.0,87,0.00,,FEW,0.00,0.00,VWS V14.01,2013-04-09 09:45:00,
2013-04-09 05:46:00,74.5,70.4,30.03,East,92,1.0,3.0,87,0.00,,FEW,0.00,0.00,VWS V14.01,2013-04-09 09:46:00,
2013-04-09 05:47:00,74.5,70.4,30.03,East,92,1.0,3.0,87,0.00,,FEW,0.00,0.00,VWS V14.01,2013-04-09 09:47:00,
2013-04-09 05:48:00,74.5,70.4,30.03,East,90,2.0,3.0,87,0.00,,FEW,0.00,0.00,VWS V14.01,2013-04-09 09:48:00,
2013-04-09 05:50:00,74.5,70.4,30.03,East,90,0.0,3.0,87,0.00,,FEW,0.00,0.00,VWS V14.01,2013-04-09 09:50:00,
2013-04-09 05:51:00,74.5,70.4,30.03,East,90,0.0,3.0,87,0.00,,FEW,0.00,0.00,VWS V14.01,2013-04-09 09:51:00,
2013-04-09 05:53:00,74.5,70.4,30.03,East,98,0.0,1.0,87,0.00,,FEW,0.00,0.00,VWS V14.01,2013-04-09 09:53:00,
2013-04-09 05:56:00,74.5,70.4,30.03,ESE,109,1.0,3.0,87,0.00,,FEW,0.00,0.00,VWS V14.01,2013-04-09 09:56:00,
2013-04-09 05:58:00,74.5,70.4,30.03,ESE,109,1.0,3.0,87,0.00,,FEW,0.00,0.00,VWS V14.01,2013-04-09 09:58:00,
2013-04-09 06:01:00,74.5,70.4,30.03,ENE,68,0.0,3.0,87,0.00,,FEW,0.00,0.00,VWS V14.01,2013-04-09 10:01:00,
2013-04-09 06:03:00,74.5,70.4,30.03,East,99,0.0,1.0,87,0.00,,FEW,0.00,0.00,VWS V14.01,2013-04-09 10:03:00,
2013-04-09 06:06:00,74.5,70.4,30.03,East,80,1.0,2.0,87,0.00,,FEW,0.00,0.00,VWS V14.01,2013-04-09 10:06:00,
2013-04-09 06:08:00,74.6,70.5,30.03,ENE,64,0.0,5.0,87,0.00,,FEW,0.00,0.00,VWS V14.01,2013-04-09 10:08:00,
2013-04-09 06:11:00,74.6,70.5,30.03,ESE,114,8.0,8.0,87,0.00,,FEW,0.00,0.00,VWS V14.01,2013-04-09 10:11:00,
2013-04-09 06:12:00,74.7,70.6,30.03,ESE,118,2.0,8.0,87,0.00,,FEW,0.00,0.00,VWS V14.01,2013-04-09 10:12:00,
2013-04-09 06:13:00,74.7,70.6,30.03,SE,129,2.0,4.0,87,0.00,,FEW,0.00,0.00,VWS V14.01,2013-04-09 10:13:00,
2013-04-09 06:17:00,74.7,70.6,30.03,ENE,78,3.0,7.0,87,0.00,,FEW,0.00,0.00,VWS V14.01,2013-04-09 10:17:00,
2013-04-09 06:18:00,74.7,70.6,30.03,SE,136,6.0,7.0,87,0.00,,FEW,0.00,0.00,VWS V14.01,2013-04-09 10:18:00,
2013-04-09 06:19:00,74.6,70.1,30.03,ENE,70,2.0,7.0,86,0.00,,FEW,0.00,0.00,VWS V14.01,2013-04-09 10:19:00,
2013-04-09 06:22:00,74.6,70.1,30.03,East,80,0.0,7.0,86,0.00,,FEW,0.00,0.00,VWS V14.01,2013-04-09 10:22:00,
2013-04-09 06:23:00,74.6,70.1,30.03,ESE,116,1.0,1.0,86,0.00,,FEW,0.00,0.00,VWS V14.01,2013-04-09 10:23:00,
2013-04-09 06:24:00,74.7,70.2,30.03,ESE,121,0.0,1.0,86,0.00,,FEW,0.00,0.00,VWS V14.01,2013-04-09 10:24:00,
2013-04-09 06:27:00,74.7,70.2,30.03,East,80,0.0,3.0,86,0.00,,FEW,0.00,0.00,VWS V14.01,2013-04-09 10:27:00,
2013-04-09 06:28:00,74.7,70.2,30.03,SE,130,0.0,3.0,86,0.00,,FEW,0.00,0.00,VWS V14.01,2013-04-09 10:28:00,
2013-04-09 06:29:00,74.7,70.2,30.03,SE,130,0.0,3.0,86,0.00,,FEW,0.00,0.00,VWS V14.01,2013-04-09 10:29:00,
2013-04-09 06:30:00,74.7,70.2,30.03,ENE,68,2.0,3.0,86,0.00,,FEW,0.00,0.00,VWS V14.01,2013-04-09 10:30:00,
2013-04-09 06:32:00,74.7,70.2,30.03,ESE,113,2.0,3.0,86,0.00,,FEW,0.00,0.00,VWS V14.01,2013-04-09 10:32:00,
2013-04-09 06:33:00,74.6,70.1,30.03,ESE,120,2.0,5.0,86,0.00,,FEW,0.00,0.00,VWS V14.01,2013-04-09 10:33:00,
2013-04-09 06:34:00,74.6,70.1,30.03,East,90,1.0,5.0,86,0.00,,FEW,0.00,0.00,VWS V14.01,2013-04-09 10:34:00,
2013-04-09 06:35:00,74.6,70.1,30.03,SE,135,1.0,5.0,86,0.00,,FEW,0.00,0.00,VWS V14.01,2013-04-09 10:35:00,
2013-04-09 06:37:00,74.6,70.1,30.03,ESE,122,4.0,7.0,86,0.00,,FEW,0.00,0.00,VWS V14.01,2013-04-09 10:37:00,
2013-04-09 06:39:00,74.6,70.1,30.03,SE,129,1.0,7.0,86,0.00,,FEW,0.00,0.00,VWS V14.01,2013-04-09 10:39:00,
2013-04-09 06:40:00,74.6,69.8,30.03,ESE,119,2.0,7.0,85,0.00,,FEW,0.00,0.00,VWS V14.01,2013-04-09 10:40:00,
2013-04-09 06:42:00,74.6,69.8,30.03,SSE,148,4.0,7.0,85,0.00,,FEW,0.00,0.00,VWS V14.01,2013-04-09 10:42:00,
2013-04-09 06:44:00,74.6,69.8,30.03,ESE,113,3.0,7.0,85,0.00,,FEW,0.00,0.00,VWS V14.01,2013-04-09 10:44:00,
2013-04-09 06:46:00,74.6,69.8,30.03,SE,128,3.0,10.0,85,0.00,,FEW,0.00,0.00,VWS V14.01,2013-04-09 10:46:00,
2013-04-09 06:47:00,74.7,69.9,30.03,ENE,67,3.0,10.0,85,0.00,,FEW,0.00,0.00,VWS V14.01,2013-04-09 10:47:00,
2013-04-09 06:49:00,74.7,69.9,30.03,SE,134,2.0,10.0,85,0.00,,FEW,0.00,0.00,VWS V14.01,2013-04-09 10:49:00,
2013-04-09 06:50:00,74.7,69.9,30.03,ESE,116,1.0,10.0,85,0.00,,FEW,0.00,0.00,VWS V14.01,2013-04-09 10:50:00,
2013-04-09 06:51:00,74.7,69.9,30.03,East,91,6.0,10.0,85,0.00,,FEW,0.00,0.00,VWS V14.01,2013-04-09 10:51:00,
2013-04-09 06:52:00,74.7,69.9,30.03,SSE,153,1.0,10.0,85,0.00,,FEW,0.00,0.00,VWS V14.01,2013-04-09 10:52:00,
2013-04-09 06:55:00,74.7,69.9,30.03,SE,132,3.0,8.0,85,0.00,,FEW,0.00,0.00,VWS V14.01,2013-04-09 10:55:00,
2013-04-09 06:57:00,74.7,69.9,30.03,SSE,154,2.0,8.0,85,0.00,,FEW,0.00,0.00,VWS V14.01,2013-04-09 10:57:00,
2013-04-09 07:00:00,74.7,69.6,30.03,SE,146,0.0,8.0,84,0.00,,FEW,0.00,0.00,VWS V14.01,2013-04-09 11:00:00,
2013-04-09 07:01:00,74.7,69.6,30.03,ESE,118,3.0,8.0,84,0.00,,FEW,0.00,0.00,VWS V14.01,2013-04-09 11:01:00,
2013-04-09 07:02:00,74.7,69.6,30.04,SE,131,1.0,8.0,84,0.00,,FEW,0.00,0.00,VWS V14.01,2013-04-09 11:02:00,
2013-04-09 07:06:00,74.7,69.6,30.04,ESE,115,2.0,4.0,84,0.00,,FEW,0.00,0.00,VWS V14.01,2013-04-09 11:06:00,
2013-04-09 07:07:00,74.7,69.9,30.04,SSE,148,3.0,4.0,85,0.00,,FEW,0.00,0.00,VWS V14.01,2013-04-09 11:07:00,
2013-04-09 07:11:00,74.7,69.9,30.04,ENE,64,3.0,4.0,85,0.00,,FEW,0.00,5.00,VWS V14.01,2013-04-09 11:11:00,
2013-04-09 07:13:00,74.8,70.0,30.04,ESE,105,1.0,3.0,85,0.00,,FEW,0.00,7.00,VWS V14.01,2013-04-09 11:13:00,
2013-04-09 07:16:00,74.7,69.9,30.04,SE,138,1.0,4.0,85,0.00,,FEW,0.00,11.00,VWS V14.01,2013-04-09 11:16:00,
2013-04-09 07:17:00,74.8,70.0,30.04,SE,140,4.0,7.0,85,0.00,,FEW,0.00,11.00,VWS V14.01,2013-04-09 11:17:00,
2013-04-09 07:18:00,74.8,70.0,30.04,ENE,77,8.0,8.0,85,0.00,,FEW,0.00,11.00,VWS V14.01,2013-04-09 11:18:00,
2013-04-09 07:21:00,74.8,69.7,30.04,ENE,77,1.0,8.0,84,0.00,,FEW,0.00,12.00,VWS V14.01,2013-04-09 11:21:00,
2013-04-09 07:22:00,74.7,69.6,30.04,East,92,1.0,8.0,84,0.00,,FEW,0.00,12.00,VWS V14.01,2013-04-09 11:22:00,
2013-04-09 07:23:00,74.7,69.6,30.04,ESE,107,4.0,4.0,84,0.00,,FEW,0.00,12.00,VWS V14.01,2013-04-09 11:23:00,
2013-04-09 07:26:00,74.7,69.6,30.04,South,184,0.0,4.0,84,0.00,,FEW,0.00,12.00,VWS V14.01,2013-04-09 11:26:00,
2013-04-09 07:27:00,74.7,69.6,30.04,East,98,3.0,4.0,84,0.00,,FEW,0.00,12.00,VWS V14.01,2013-04-09 11:27:00,
2013-04-09 07:28:00,74.7,69.6,30.04,East,89,1.0,7.0,84,0.00,,FEW,0.00,14.00,VWS V14.01,2013-04-09 11:28:00,
2013-04-09 07:32:00,74.7,69.6,30.05,SE,142,0.0,7.0,84,0.00,,FEW,0.00,21.00,VWS V14.01,2013-04-09 11:32:00,
2013-04-09 07:33:00,74.7,69.6,30.05,SE,130,5.0,6.0,84,0.00,,FEW,0.00,23.00,VWS V14.01,2013-04-09 11:33:00,
2013-04-09 07:37:00,74.7,69.6,30.05,ESE,103,1.0,7.0,84,0.00,,FEW,0.00,23.00,VWS V14.01,2013-04-09 11:37:00,
2013-04-09 07:38:00,74.7,69.6,30.05,ESE,117,2.0,7.0,84,0.00,,FEW,0.00,23.00,VWS V14.01,2013-04-09 11:38:00,
2013-04-09 07:39:00,74.7,69.6,30.05,SE,127,5.0,7.0,84,0.00,,FEW,0.00,23.00,VWS V14.01,2013-04-09 11:39:00,
2013-04-09 07:42:00,74.8,69.7,30.05,ENE,76,1.0,7.0,84,0.00,,FEW,0.00,26.00,VWS V14.01,2013-04-09 11:42:00,
2013-04-09 07:43:00,74.8,69.7,30.05,ESE,103,1.0,3.0,84,0.00,,FEW,0.00,30.00,VWS V14.01,2013-04-09 11:43:00,
2013-04-09 07:44:00,74.9,69.7,30.05,SE,142,3.0,5.0,84,0.00,,FEW,0.00,33.00,VWS V14.01,2013-04-09 11:44:00,
2013-04-09 07:47:00,74.9,69.7,30.05,ESE,105,0.0,7.0,84,0.00,,FEW,0.00,33.00,VWS V14.01,2013-04-09 11:47:00,
2013-04-09 07:49:00,75.0,69.8,30.05,ENE,67,3.0,7.0,84,0.00,,FEW,0.00,37.00,VWS V14.01,2013-04-09 11:49:00,
2013-04-09 07:52:00,75.2,70.0,30.05,East,98,0.0,7.0,84,0.00,,FEW,0.00,39.00,VWS V14.01,2013-04-09 11:52:00,
2013-04-09 07:54:00,75.2,70.0,30.05,ENE,74,0.0,5.0,84,0.00,,FEW,0.00,37.00,VWS V14.01,2013-04-09 11:54:00,
2013-04-09 07:57:00,75.1,69.6,30.05,ESE,123,4.0,5.0,83,0.00,,FEW,0.00,42.00,VWS V14.01,2013-04-09 11:57:00,
2013-04-09 08:00:00,75.1,69.2,30.05,ENE,59,3.0,5.0,82,0.00,,FEW,0.00,40.00,VWS V14.01,2013-04-09 12:00:00,
2013-04-09 08:02:00,75.2,69.3,30.06,ENE,57,1.0,5.0,82,0.00,,FEW,0.00,44.00,VWS V14.01,2013-04-09 12:02:00,
2013-04-09 08:03:00,75.2,69.3,30.06,ENE,58,2.0,3.0,82,0.00,,FEW,0.00,44.00,VWS V14.01,2013-04-09 12:03:00,
2013-04-09 08:05:00,75.3,69.4,30.06,ESE,123,5.0,8.0,82,0.00,,FEW,0.00,47.00,VWS V14.01,2013-04-09 12:05:00,
2013-04-09 08:08:00,75.4,69.5,30.06,ESE,112,2.0,8.0,82,0.00,,FEW,0.00,56.00,VWS V14.01,2013-04-09 12:08:00,
2013-04-09 08:10:00,75.6,69.7,30.06,East,86,3.0,8.0,82,0.00,,FEW,0.00,76.00,VWS V14.01,2013-04-09 12:10:00,
2013-04-09 08:13:00,75.7,69.8,30.06,NNE,16,5.0,5.0,82,0.00,,FEW,0.00,153.00,VWS V14.01,2013-04-09 12:13:00,
2013-04-09 08:15:00,75.8,69.9,30.06,ENE,66,1.0,7.0,82,0.00,,FEW,0.00,76.00,VWS V14.01,2013-04-09 12:15:00,
2013-04-09 08:18:00,75.9,69.7,30.06,ESE,116,3.0,7.0,81,0.00,,FEW,0.00,72.00,VWS V14.01,2013-04-09 12:18:00,
2013-04-09 08:20:00,76.0,69.8,30.06,ESE,104,7.0,7.0,81,0.00,,FEW,0.00,60.00,VWS V14.01,2013-04-09 12:20:00,
2013-04-09 08:23:00,76.0,69.4,30.06,East,84,5.0,5.0,80,0.00,,FEW,0.00,58.00,VWS V14.01,2013-04-09 12:23:00,
2013-04-09 08:25:00,76.1,69.5,30.06,ESE,123,1.0,7.0,80,0.00,,FEW,0.00,53.00,VWS V14.01,2013-04-09 12:25:00,
2013-04-09 08:28:00,76.2,69.6,30.06,East,94,2.0,7.0,80,0.00,,FEW,0.00,60.00,VWS V14.01,2013-04-09 12:28:00,
2013-04-09 08:29:00,76.2,69.6,30.06,ESE,123,2.0,8.0,80,0.00,,FEW,0.00,60.00,VWS V14.01,2013-04-09 12:29:00,
2013-04-09 08:30:00,76.3,69.7,30.06,NE,46,2.0,8.0,80,0.00,,FEW,0.00,58.00,VWS V14.01,2013-04-09 12:30:00,
2013-04-09 08:33:00,76.3,69.3,30.07,East,97,5.0,5.0,79,0.00,,FEW,0.00,69.00,VWS V14.01,2013-04-09 12:33:00,
2013-04-09 08:34:00,76.4,69.4,30.07,East,87,3.0,5.0,79,0.00,,FEW,0.00,113.00,VWS V14.01,2013-04-09 12:34:00,
2013-04-09 08:35:00,76.4,69.4,30.07,East,98,0.0,5.0,79,0.00,,FEW,0.00,156.00,VWS V14.01,2013-04-09 12:35:00,
2013-04-09 08:36:00,76.4,69.4,30.07,East,98,1.0,5.0,79,0.00,,FEW,0.00,156.00,VWS V14.01,2013-04-09 12:36:00,
2013-04-09 08:38:00,76.6,70.0,30.07,ENE,69,2.0,5.0,80,0.00,,FEW,0.00,169.00,VWS V14.01,2013-04-09 12:38:00,
2013-04-09 08:40:00,76.7,70.1,30.07,ENE,59,3.0,7.0,80,0.00,,FEW,0.00,158.00,VWS V14.01,2013-04-09 12:40:00,
2013-04-09 08:41:00,76.7,69.7,30.07,SE,135,5.0,9.0,79,0.00,,FEW,0.00,190.00,VWS V14.01,2013-04-09 12:41:00,
2013-04-09 08:44:00,76.9,69.9,30.07,ENE,72,3.0,5.0,79,0.00,,FEW,0.00,202.00,VWS V14.01,2013-04-09 12:44:00,
2013-04-09 08:45:00,76.9,69.9,30.07,East,92,8.0,8.0,79,0.00,,FEW,0.00,253.00,VWS V14.01,2013-04-09 12:45:00,
2013-04-09 08:46:00,76.9,69.9,30.07,ESE,107,7.0,8.0,79,0.00,,FEW,0.00,253.00,VWS V14.01,2013-04-09 12:46:00,
2013-04-09 08:47:00,77.0,69.6,30.07,NE,47,5.0,9.0,78,0.00,,FEW,0.00,274.00,VWS V14.01,2013-04-09 12:47:00,
2013-04-09 08:50:00,77.1,69.7,30.07,ENE,78,8.0,9.0,78,0.00,,FEW,0.00,278.00,VWS V14.01,2013-04-09 12:50:00,
2013-04-09 08:51:00,77.2,69.8,30.07,ENE,74,1.0,9.0,78,0.00,,FEW,0.00,299.00,VWS V14.01,2013-04-09 12:51:00,
2013-04-09 08:52:00,77.3,69.9,30.07,SSE,162,6.0,9.0,78,0.00,,FEW,0.00,283.00,VWS V14.01,2013-04-09 12:52:00,
2013-04-09 08:55:00,77.5,70.1,30.07,ENE,73,4.0,7.0,78,0.00,,FEW,0.00,288.00,VWS V14.01,2013-04-09 12:55:00,
2013-04-09 08:56:00,77.5,70.1,30.07,SE,137,5.0,7.0,78,0.00,,FEW,0.00,308.00,VWS V14.01,2013-04-09 12:56:00,
2013-04-09 08:58:00,77.7,70.3,30.07,East,85,6.0,7.0,78,0.00,,FEW,0.00,334.00,VWS V14.01,2013-04-09 12:58:00,
2013-04-09 09:00:00,77.9,70.5,30.07,ESE,107,3.0,8.0,78,0.00,,FEW,0.00,327.00,VWS V14.01,2013-04-09 13:00:00,
2013-04-09 09:01:00,77.9,70.5,30.07,East,82,2.0,8.0,78,0.00,,FEW,0.00,327.00,VWS V14.01,2013-04-09 13:01:00,
2013-04-09 09:03:00,78.0,70.2,30.08,SE,126,3.0,4.0,77,0.00,,FEW,0.00,348.00,VWS V14.01,2013-04-09 13:03:00,
2013-04-09 09:05:00,78.1,70.3,30.08,East,87,1.0,6.0,77,0.00,,FEW,0.00,378.00,VWS V14.01,2013-04-09 13:05:00,
2013-04-09 09:06:00,78.2,70.4,30.08,ENE,71,5.0,8.0,77,0.00,,FEW,0.00,378.00,VWS V14.01,2013-04-09 13:06:00,
2013-04-09 09:08:00,78.3,70.5,30.08,East,94,3.0,8.0,77,0.00,,FEW,0.00,385.00,VWS V14.01,2013-04-09 13:08:00,
2013-04-09 09:10:00,78.5,70.7,30.08,SE,127,2.0,8.0,77,0.00,,FEW,0.00,383.00,VWS V14.01,2013-04-09 13:10:00,
2013-04-09 09:11:00,78.6,70.8,30.08,SE,127,1.0,8.0,77,0.00,,FEW,0.00,383.00,VWS V14.01,2013-04-09 13:11:00,
2013-04-09 09:12:00,78.7,70.9,30.08,East,94,2.0,8.0,77,0.00,,FEW,0.00,404.00,VWS V14.01,2013-04-09 13:12:00,
2013-04-09 09:13:00,78.8,71.0,30.08,ENE,68,2.0,3.0,77,0.00,,FEW,0.00,369.00,VWS V14.01,2013-04-09 13:13:00,
2013-04-09 09:16:00,79.0,71.2,30.08,ESE,113,4.0,8.0,77,0.00,,FEW,0.00,385.00,VWS V14.01,2013-04-09 13:16:00,
2013-04-09 09:18:00,79.1,70.9,30.08,ESE,121,3.0,8.0,76,0.00,,FEW,0.00,413.00,VWS V14.01,2013-04-09 13:18:00,
2013-04-09 09:22:00,79.1,70.5,30.08,East,97,2.0,10.0,75,0.00,,FEW,0.00,436.00,VWS V14.01,2013-04-09 13:22:00,
2013-04-09 09:23:00,79.1,70.5,30.08,ENE,67,3.0,3.0,75,0.00,,FEW,0.00,441.00,VWS V14.01,2013-04-09 13:23:00,
2013-04-09 09:27:00,79.3,71.1,30.08,East,83,2.0,7.0,76,0.00,,FEW,0.00,434.00,VWS V14.01,2013-04-09 13:27:00,
2013-04-09 09:28:00,79.4,71.2,30.08,East,90,5.0,7.0,76,0.00,,FEW,0.00,431.00,VWS V14.01,2013-04-09 13:28:00,
2013-04-09 09:32:00,79.7,71.1,30.09,ESE,103,2.0,3.0,75,0.00,,FEW,0.00,469.00,VWS V14.01,2013-04-09 13:32:00,
2013-04-09 09:33:00,79.8,71.2,30.09,ENE,57,8.0,8.0,75,0.00,,FEW,0.00,469.00,VWS V14.01,2013-04-09 13:33:00,
2013-04-09 09:38:00,80.1,71.5,30.09,ESE,107,4.0,8.0,75,0.00,,FEW,0.00,496.00,VWS V14.01,2013-04-09 13:38:00,
2013-04-09 09:43:00,80.3,71.3,30.09,ESE,111,5.0,5.0,74,0.00,,FEW,0.00,264.00,VWS V14.01,2013-04-09 13:43:00,
2013-04-09 09:48:00,80.3,71.7,30.09,ESE,122,2.0,8.0,75,0.00,,FEW,0.00,274.00,VWS V14.01,2013-04-09 13:48:00,
2013-04-09 09:49:00,80.3,71.7,30.09,ENE,62,5.0,8.0,75,0.00,,FEW,0.00,315.00,VWS V14.01,2013-04-09 13:49:00,
2013-04-09 09:53:00,80.0,71.0,30.09,NE,55,2.0,8.0,74,0.00,,FEW,0.00,225.00,VWS V14.01,2013-04-09 13:53:00,
2013-04-09 09:54:00,80.0,71.0,30.09,NE,51,4.0,8.0,74,0.00,,FEW,0.00,225.00,VWS V14.01,2013-04-09 13:54:00,
2013-04-09 09:58:00,79.9,71.3,30.09,ENE,71,2.0,8.0,75,0.00,,FEW,0.00,415.00,VWS V14.01,2013-04-09 13:58:00,
2013-04-09 09:59:00,80.0,71.4,30.09,SE,130,3.0,8.0,75,0.00,,FEW,0.00,281.00,VWS V14.01,2013-04-09 13:59:00,
2013-04-09 10:03:00,79.8,71.2,30.09,East,99,3.0,6.0,75,0.00,,FEW,0.00,374.00,VWS V14.01,2013-04-09 14:03:00,
2013-04-09 10:04:00,79.8,71.2,30.09,SSE,147,3.0,6.0,75,0.00,,FEW,0.00,371.00,VWS V14.01,2013-04-09 14:04:00,
2013-04-09 10:05:00,79.8,71.2,30.09,East,93,1.0,6.0,75,0.00,,FEW,0.00,371.00,VWS V14.01,2013-04-09 14:05:00,
2013-04-09 10:08:00,80.1,71.5,30.09,NE,55,3.0,6.0,75,0.00,,FEW,0.00,548.00,VWS V14.01,2013-04-09 14:08:00,
2013-04-09 10:09:00,80.4,71.8,30.09,East,94,1.0,6.0,75,0.00,,FEW,0.00,582.00,VWS V14.01,2013-04-09 14:09:00,
2013-04-09 10:10:00,80.4,71.8,30.09,East,94,1.0,6.0,75,0.00,,FEW,0.00,582.00,VWS V14.01,2013-04-09 14:10:00,
2013-04-09 10:13:00,80.9,71.8,30.09,SE,130,5.0,6.0,74,0.00,,FEW,0.00,617.00,VWS V14.01,2013-04-09 14:13:00,
2013-04-09 10:15:00,81.2,71.7,30.09,ESE,119,5.0,6.0,73,0.00,,FEW,0.00,564.00,VWS V14.01,2013-04-09 14:15:00,
2013-04-09 10:17:00,81.3,71.4,30.09,ESE,113,3.0,8.0,72,0.00,,FEW,0.00,605.00,VWS V14.01,2013-04-09 14:17:00,
2013-04-09 10:18:00,81.3,71.4,30.09,ENE,71,7.0,8.0,72,0.00,,FEW,0.00,612.00,VWS V14.01,2013-04-09 14:18:00,
2013-04-09 10:20:00,81.4,71.9,30.09,SE,130,4.0,8.0,73,0.00,,FEW,0.00,622.00,VWS V14.01,2013-04-09 14:20:00,
2013-04-09 10:22:00,81.6,72.1,30.09,East,92,5.0,5.0,73,0.00,,FEW,0.00,621.00,VWS V14.01,2013-04-09 14:22:00,
2013-04-09 10:23:00,81.7,72.2,30.09,NE,35,5.0,5.0,73,0.00,,FEW,0.00,624.00,VWS V14.01,2013-04-09 14:23:00,
2013-04-09 10:25:00,81.7,71.8,30.09,ENE,72,9.0,9.0,72,0.00,,FEW,0.00,629.00,VWS V14.01,2013-04-09 14:25:00,
2013-04-09 10:28:00,81.7,71.8,30.09,ESE,109,3.0,9.0,72,0.00,,FEW,0.00,636.00,VWS V14.01,2013-04-09 14:28:00,
2013-04-09 10:29:00,81.7,72.2,30.09,ENE,74,1.0,9.0,73,0.00,,FEW,0.00,635.00,VWS V14.01,2013-04-09 14:29:00,
2013-04-09 10:30:00,81.7,72.2,30.09,SE,130,2.0,9.0,73,0.00,,FEW,0.00,617.00,VWS V14.01,2013-04-09 14:30:00,
2013-04-09 10:33:00,81.9,72.0,30.09,SE,137,2.0,2.0,72,0.00,,FEW,0.00,650.00,VWS V14.01,2013-04-09 14:33:00,
2013-04-09 10:34:00,82.0,72.1,30.09,ENE,65,3.0,4.0,72,0.00,,FEW,0.00,619.00,VWS V14.01,2013-04-09 14:34:00,
2013-04-09 10:35:00,82.1,72.2,30.09,SE,130,7.0,7.0,72,0.00,,FEW,0.00,619.00,VWS V14.01,2013-04-09 14:35:00,
2013-04-09 10:38:00,82.1,72.2,30.09,ENE,63,4.0,7.0,72,0.00,,FEW,0.00,698.00,VWS V14.01,2013-04-09 14:38:00,
2013-04-09 10:39:00,82.3,72.4,30.09,East,82,3.0,7.0,72,0.00,,FEW,0.00,650.00,VWS V14.01,2013-04-09 14:39:00,
2013-04-09 10:40:00,82.5,72.6,30.09,SE,124,1.0,7.0,72,0.00,,FEW,0.00,694.00,VWS V14.01,2013-04-09 14:40:00,
2013-04-09 10:43:00,82.7,72.3,30.09,ESE,111,5.0,6.0,71,0.00,,FEW,0.00,708.00,VWS V14.01,2013-04-09 14:43:00,
2013-04-09 10:44:00,82.7,72.3,30.09,ESE,112,4.0,7.0,71,0.00,,FEW,0.00,675.00,VWS V14.01,2013-04-09 14:44:00,
2013-04-09 10:45:00,82.7,72.3,30.09,East,96,3.0,7.0,71,0.00,,FEW,0.00,656.00,VWS V14.01,2013-04-09 14:45:00,
2013-04-09 10:48:00,82.6,72.2,30.10,ESE,118,2.0,7.0,71,0.00,,FEW,0.00,645.00,VWS V14.01,2013-04-09 14:48:00,
2013-04-09 10:49:00,82.5,72.2,30.10,ENE,66,2.0,7.0,71,0.00,,FEW,0.00,612.00,VWS V14.01,2013-04-09 14:49:00,
2013-04-09 10:50:00,82.5,72.2,30.10,East,83,3.0,7.0,71,0.00,,FEW,0.00,673.00,VWS V14.01,2013-04-09 14:50:00,
2013-04-09 10:51:00,82.5,72.2,30.10,ENE,59,5.0,7.0,71,0.00,,FEW,0.00,707.00,VWS V14.01,2013-04-09 14:51:00,
2013-04-09 10:53:00,82.6,72.7,30.10,East,82,1.0,7.0,72,0.00,,FEW,0.00,687.00,VWS V14.01,2013-04-09 14:53:00,
2013-04-09 10:55:00,82.7,72.3,30.10,SE,126,1.0,7.0,71,0.00,,FEW,0.00,744.00,VWS V14.01,2013-04-09 14:55:00,
2013-04-09 10:56:00,82.7,72.3,30.10,ENE,78,2.0,7.0,71,0.00,,FEW,0.00,770.00,VWS V14.01,2013-04-09 14:56:00,
2013-04-09 10:58:00,82.7,72.3,30.10,ESE,106,5.0,7.0,71,0.00,,FEW,0.00,628.00,VWS V14.01,2013-04-09 14:58:00,
2013-04-09 11:00:00,82.8,72.4,30.10,ESE,121,5.0,7.0,71,0.00,,FEW,0.00,772.00,VWS V14.01,2013-04-09 15:00:00,
2013-04-09 11:01:00,82.8,72.4,30.10,ENE,61,1.0,7.0,71,0.00,,FEW,0.00,731.00,VWS V14.01,2013-04-09 15:01:00,
2013-04-09 11:03:00,82.8,72.4,30.10,East,84,3.0,7.0,71,0.00,,FEW,0.00,719.00,VWS V14.01,2013-04-09 15:03:00,
2013-04-09 11:05:00,82.8,72.4,30.10,SE,131,2.0,7.0,71,0.00,,FEW,0.00,731.00,VWS V14.01,2013-04-09 15:05:00,
2013-04-09 11:06:00,82.8,72.4,30.10,SE,131,2.0,7.0,71,0.00,,FEW,0.00,731.00,VWS V14.01,2013-04-09 15:06:00,
2013-04-09 11:07:00,82.9,72.5,30.10,SE,145,5.0,7.0,71,0.00,,FEW,0.00,677.00,VWS V14.01,2013-04-09 15:07:00,
2013-04-09 11:08:00,82.9,72.5,30.10,NE,42,2.0,7.0,71,0.00,,FEW,0.00,733.00,VWS V14.01,2013-04-09 15:08:00,
2013-04-09 11:10:00,82.9,72.5,30.10,SE,136,5.0,8.0,71,0.00,,FEW,0.00,779.00,VWS V14.01,2013-04-09 15:10:00,
2013-04-09 11:11:00,82.9,72.5,30.10,SSE,161,5.0,8.0,71,0.00,,FEW,0.00,782.00,VWS V14.01,2013-04-09 15:11:00,
2013-04-09 11:12:00,83.0,72.6,30.10,ENE,71,1.0,8.0,71,0.00,,FEW,0.00,788.00,VWS V14.01,2013-04-09 15:12:00,
2013-04-09 11:14:00,83.3,72.9,30.10,East,90,1.0,5.0,71,0.00,,FEW,0.00,803.00,VWS V14.01,2013-04-09 15:14:00,
2013-04-09 11:15:00,83.4,73.0,30.10,SE,142,3.0,7.0,71,0.00,,FEW,0.00,810.00,VWS V14.01,2013-04-09 15:15:00,
2013-04-09 11:16:00,83.4,73.0,30.10,ENE,62,4.0,7.0,71,0.00,,FEW,0.00,810.00,VWS V14.01,2013-04-09 15:16:00,
2013-04-09 11:17:00,83.4,72.6,30.10,ESE,113,0.0,7.0,70,0.00,,FEW,0.00,810.00,VWS V14.01,2013-04-09 15:17:00,
2013-04-09 11:19:00,83.7,73.3,30.10,ENE,62,2.0,7.0,71,0.00,,FEW,0.00,809.00,VWS V14.01,2013-04-09 15:19:00,
2013-04-09 11:21:00,83.6,72.8,30.10,ENE,66,1.0,9.0,70,0.00,,FEW,0.00,819.00,VWS V14.01,2013-04-09 15:21:00,
2013-04-09 11:22:00,83.6,72.8,30.10,East,96,1.0,1.0,70,0.00,,FEW,0.00,823.00,VWS V14.01,2013-04-09 15:22:00,
2013-04-09 11:25:00,83.7,73.3,30.10,ENE,73,4.0,4.0,71,0.00,,FEW,0.00,833.00,VWS V14.01,2013-04-09 15:25:00,
2013-04-09 11:26:00,83.9,73.1,30.10,ESE,121,3.0,5.0,70,0.00,,FEW,0.00,835.00,VWS V14.01,2013-04-09 15:26:00,
2013-04-09 11:27:00,84.0,73.2,30.10,ENE,61,3.0,5.0,70,0.00,,FEW,0.00,835.00,VWS V14.01,2013-04-09 15:27:00,
2013-04-09 11:30:00,83.9,72.7,30.10,SE,131,3.0,6.0,69,0.00,,FEW,0.00,737.00,VWS V14.01,2013-04-09 15:30:00,
2013-04-09 11:32:00,83.6,72.8,30.10,SE,131,4.0,7.0,70,0.00,,FEW,0.00,879.00,VWS V14.01,2013-04-09 15:32:00,
2013-04-09 11:35:00,83.4,73.0,30.10,SE,134,1.0,7.0,71,0.00,,FEW,0.00,830.00,VWS V14.01,2013-04-09 15:35:00,
2013-04-09 11:37:00,83.6,73.2,30.10,ESE,115,7.0,9.0,71,0.00,,FEW,0.00,846.00,VWS V14.01,2013-04-09 15:37:00,
2013-04-09 11:38:00,83.6,72.8,30.10,ENE,74,4.0,9.0,70,0.00,,FEW,0.00,846.00,VWS V14.01,2013-04-09 15:38:00,
2013-04-09 11:40:00,83.7,73.3,30.10,ENE,65,2.0,9.0,71,0.00,,FEW,0.00,770.00,VWS V14.01,2013-04-09 15:40:00,
2013-04-09 11:42:00,83.8,73.4,30.10,ESE,117,4.0,9.0,71,0.00,,FEW,0.00,861.00,VWS V14.01,2013-04-09 15:42:00,
2013-04-09 11:43:00,84.0,73.6,30.10,East,84,5.0,9.0,71,0.00,,FEW,0.00,838.00,VWS V14.01,2013-04-09 15:43:00,
2013-04-09 11:45:00,84.0,72.7,30.10,ENE,61,3.0,11.0,69,0.00,,FEW,0.00,828.00,VWS V14.01,2013-04-09 15:45:00,
2013-04-09 11:47:00,83.8,73.0,30.10,ENE,61,8.0,11.0,70,0.00,,FEW,0.00,870.00,VWS V14.01,2013-04-09 15:47:00,
2013-04-09 11:48:00,83.8,73.0,30.10,SE,130,7.0,11.0,70,0.00,,FEW,0.00,882.00,VWS V14.01,2013-04-09 15:48:00,
2013-04-09 11:50:00,83.6,72.8,30.10,ENE,60,2.0,11.0,70,0.00,,FEW,0.00,909.00,VWS V14.01,2013-04-09 15:50:00,
2013-04-09 11:52:00,83.5,72.7,30.10,East,79,3.0,11.0,70,0.00,,FEW,0.00,935.00,VWS V14.01,2013-04-09 15:52:00,
2013-04-09 11:53:00,83.5,72.7,30.10,East,93,3.0,8.0,70,0.00,,FEW,0.00,944.00,VWS V14.01,2013-04-09 15:53:00,
2013-04-09 11:55:00,83.5,72.7,30.10,ESE,115,4.0,8.0,70,0.00,,FEW,0.00,956.00,VWS V14.01,2013-04-09 15:55:00,
2013-04-09 11:57:00,83.6,73.2,30.10,East,86,3.0,8.0,71,0.00,,FEW,0.00,933.00,VWS V14.01,2013-04-09 15:57:00,
2013-04-09 11:58:00,83.6,73.2,30.10,South,173,2.0,8.0,71,0.00,,FEW,0.00,842.00,VWS V14.01,2013-04-09 15:58:00,
2013-04-09 11:59:00,83.6,73.2,30.10,NE,39,1.0,8.0,71,0.00,,FEW,0.00,810.00,VWS V14.01,2013-04-09 15:59:00,
2013-04-09 12:00:00,83.6,73.2,30.10,ENE,73,3.0,8.0,71,0.00,,FEW,0.00,898.00,VWS V14.01,2013-04-09 16:00:00,
2013-04-09 12:02:00,83.6,72.8,30.09,East,80,6.0,9.0,70,0.00,,FEW,0.00,759.00,VWS V14.01,2013-04-09 16:02:00,
2013-04-09 12:03:00,83.5,72.7,30.09,ESE,119,7.0,7.0,70,0.00,,FEW,0.00,861.00,VWS V14.01,2013-04-09 16:03:00,
2013-04-09 12:04:00,83.4,73.0,30.09,ESE,117,4.0,8.0,71,0.00,,FEW,0.00,861.00,VWS V14.01,2013-04-09 16:04:00,
2013-04-09 12:05:00,83.4,72.6,30.09,East,90,2.0,8.0,70,0.00,,FEW,0.00,861.00,VWS V14.01,2013-04-09 16:05:00,
2013-04-09 12:07:00,83.4,73.0,30.09,ENE,62,2.0,8.0,71,0.00,,FEW,0.00,628.00,VWS V14.01,2013-04-09 16:07:00,
2013-04-09 12:08:00,83.4,73.0,30.09,NE,54,3.0,8.0,71,0.00,,FEW,0.00,715.00,VWS V14.01,2013-04-09 16:08:00,
2013-04-09 12:09:00,83.4,72.6,30.09,East,83,6.0,9.0,70,0.00,,FEW,0.00,722.00,VWS V14.01,2013-04-09 16:09:00,
2013-04-09 12:10:00,83.3,72.5,30.09,ENE,67,9.0,9.0,70,0.00,,FEW,0.00,788.00,VWS V14.01,2013-04-09 16:10:00,
2013-04-09 12:12:00,83.2,72.4,30.09,SE,124,6.0,9.0,70,0.00,,FEW,0.00,877.00,VWS V14.01,2013-04-09 16:12:00,
2013-04-09 12:13:00,83.1,72.3,30.09,ESE,119,3.0,7.0,70,0.00,,FEW,0.00,805.00,VWS V14.01,2013-04-09 16:13:00,
2013-04-09 12:14:00,83.1,72.7,30.09,NE,53,4.0,9.0,71,0.00,,FEW,0.00,788.00,VWS V14.01,2013-04-09 16:14:00,
2013-04-09 12:16:00,83.1,72.3,30.09,ENE,78,4.0,10.0,70,0.00,,FEW,0.00,877.00,VWS V14.01,2013-04-09 16:16:00,
2013-04-09 12:17:00,83.1,72.3,30.10,East,85,5.0,10.0,70,0.00,,FEW,0.00,926.00,VWS V14.01,2013-04-09 16:17:00,
2013-04-09 12:19:00,83.4,73.4,30.10,SE,132,2.0,10.0,72,0.00,,FEW,0.00,951.00,VWS V14.01,2013-04-09 16:19:00,
2013-04-09 12:20:00,83.6,72.8,30.10,East,84,6.0,10.0,70,0.00,,FEW,0.00,951.00,VWS V14.01,2013-04-09 16:20:00,
2013-04-09 12:21:00,83.6,72.4,30.10,ESE,117,1.0,13.0,69,0.00,,FEW,0.00,997.00,VWS V14.01,2013-04-09 16:21:00,
2013-04-09 12:22:00,83.6,72.8,30.10,East,96,7.0,7.0,70,0.00,,FEW,0.00,930.00,VWS V14.01,2013-04-09 16:22:00,
2013-04-09 12:24:00,83.8,73.0,30.10,ENE,70,1.0,7.0,70,0.00,,FEW,0.00,874.00,VWS V14.01,2013-04-09 16:24:00,
2013-04-09 12:27:00,84.1,73.3,30.10,SE,130,3.0,7.0,70,0.00,,FEW,0.00,911.00,VWS V14.01,2013-04-09 16:27:00,
2013-04-09 12:29:00,84.1,72.8,30.10,NE,55,3.0,7.0,69,0.00,,FEW,0.00,939.00,VWS V14.01,2013-04-09 16:29:00,
2013-04-09 12:32:00,84.2,72.9,30.10,SE,128,7.0,7.0,69,0.00,,FEW,0.00,947.00,VWS V14.01,2013-04-09 16:32:00,
2013-04-09 12:33:00,84.1,72.8,30.10,East,86,3.0,5.0,69,0.00,,FEW,0.00,946.00,VWS V14.01,2013-04-09 16:33:00,
2013-04-09 12:34:00,84.1,73.3,30.10,East,96,2.0,5.0,70,0.00,,FEW,0.00,953.00,VWS V14.01,2013-04-09 16:34:00,
2013-04-09 12:35:00,84.0,73.2,30.10,ESE,119,4.0,5.0,70,0.00,,FEW,0.00,949.00,VWS V14.01,2013-04-09 16:35:00,
2013-04-09 12:37:00,83.9,73.1,30.10,North,360,5.0,7.0,70,0.00,,FEW,0.00,954.00,VWS V14.01,2013-04-09 16:37:00,
2013-04-09 12:38:00,83.9,73.1,30.10,East,96,5.0,9.0,70,0.00,,FEW,0.00,956.00,VWS V14.01,2013-04-09 16:38:00,
2013-04-09 12:39:00,84.1,73.3,30.10,SE,124,3.0,9.0,70,0.00,,FEW,0.00,918.00,VWS V14.01,2013-04-09 16:39:00,
2013-04-09 12:42:00,84.2,73.4,30.10,ESE,108,3.0,9.0,70,0.00,,FEW,0.00,960.00,VWS V14.01,2013-04-09 16:42:00,
2013-04-09 12:43:00,84.2,73.4,30.10,NE,48,2.0,5.0,70,0.00,,FEW,0.00,940.00,VWS V14.01,2013-04-09 16:43:00,
2013-04-09 12:45:00,84.3,73.5,30.10,ENE,74,5.0,7.0,70,0.00,,FEW,0.00,946.00,VWS V14.01,2013-04-09 16:45:00,
2013-04-09 12:47:00,84.2,72.9,30.09,ENE,65,3.0,7.0,69,0.00,,FEW,0.00,969.00,VWS V14.01,2013-04-09 16:47:00,
2013-04-09 12:48:00,84.1,72.8,30.09,ENE,78,7.0,7.0,69,0.00,,FEW,0.00,969.00,VWS V14.01,2013-04-09 16:48:00,
2013-04-09 12:50:00,84.2,72.9,30.09,SE,127,6.0,7.0,69,0.00,,FEW,0.00,939.00,VWS V14.01,2013-04-09 16:50:00,
2013-04-09 12:52:00,84.1,72.8,30.09,ESE,116,2.0,7.0,69,0.00,,FEW,0.00,967.00,VWS V14.01,2013-04-09 16:52:00,
2013-04-09 12:53:00,84.2,73.4,30.09,SSE,150,4.0,4.0,70,0.00,,FEW,0.00,995.00,VWS V14.01,2013-04-09 16:53:00,
2013-04-09 12:55:00,84.3,73.0,30.09,ENE,67,2.0,7.0,69,0.00,,FEW,0.00,1028.00,VWS V14.01,2013-04-09 16:55:00,
2013-04-09 12:57:00,84.3,73.0,30.09,East,94,3.0,7.0,69,0.00,,FEW,0.00,940.00,VWS V14.01,2013-04-09 16:57:00,
2013-04-09 12:58:00,84.3,73.0,30.09,ESE,115,3.0,7.0,69,0.00,,FEW,0.00,965.00,VWS V14.01,2013-04-09 16:58:00,
2013-04-09 13:00:00,84.4,73.1,30.09,ESE,106,2.0,8.0,69,0.00,,FEW,0.00,886.00,VWS V14.01,2013-04-09 17:00:00,
2013-04-09 13:02:00,84.2,73.4,30.09,NE,36,3.0,8.0,70,0.00,,FEW,0.00,886.00,VWS V14.01,2013-04-09 17:02:00,
2013-04-09 13:04:00,84.1,72.8,30.09,ENE,70,3.0,5.0,69,0.00,,FEW,0.00,886.00,VWS V14.01,2013-04-09 17:04:00,
2013-04-09 13:05:00,83.9,73.1,30.09,SE,126,3.0,7.0,70,0.00,,FEW,0.00,1002.00,VWS V14.01,2013-04-09 17:05:00,
2013-04-09 13:07:00,83.5,72.7,30.09,ESE,103,2.0,7.0,70,0.00,,FEW,0.00,1046.00,VWS V14.01,2013-04-09 17:07:00,
2013-04-09 13:09:00,83.8,73.4,30.09,ENE,74,4.0,7.0,71,0.00,,FEW,0.00,1046.00,VWS V14.01,2013-04-09 17:09:00,
2013-04-09 13:10:00,83.9,73.5,30.09,SSE,148,5.0,7.0,71,0.00,,FEW,0.00,1132.00,VWS V14.01,2013-04-09 17:10:00,
2013-04-09 13:13:00,84.0,73.2,30.09,ENE,70,2.0,5.0,70,0.00,,FEW,0.00,1076.00,VWS V14.01,2013-04-09 17:13:00,
2013-04-09 13:14:00,83.8,73.4,30.09,East,82,2.0,7.0,71,0.00,,FEW,0.00,1076.00,VWS V14.01,2013-04-09 17:14:00,
2013-04-09 13:15:00,83.8,73.4,30.09,ENE,77,2.0,7.0,71,0.00,,FEW,0.00,1076.00,VWS V14.01,2013-04-09 17:15:00,
2013-04-09 13:18:00,83.8,73.4,30.08,NE,54,5.0,8.0,71,0.00,,FEW,0.00,749.00,VWS V14.01,2013-04-09 17:18:00,
2013-04-09 13:19:00,83.8,73.4,30.08,ENE,71,5.0,8.0,71,0.00,,FEW,0.00,749.00,VWS V14.01,2013-04-09 17:19:00,
2013-04-09 13:20:00,83.8,73.4,30.08,East,81,5.0,8.0,71,0.00,,FEW,0.00,1100.00,VWS V14.01,2013-04-09 17:20:00,
2013-04-09 13:23:00,83.5,73.1,30.08,ENE,76,3.0,5.0,71,0.00,,FEW,0.00,905.00,VWS V14.01,2013-04-09 17:23:00,
2013-04-09 13:24:00,83.4,73.0,30.08,ESE,116,4.0,7.0,71,0.00,,FEW,0.00,956.00,VWS V14.01,2013-04-09 17:24:00,
2013-04-09 13:25:00,83.2,72.8,30.08,ESE,112,4.0,8.0,71,0.00,,FEW,0.00,969.00,VWS V14.01,2013-04-09 17:25:00,
2013-04-09 13:26:00,83.0,72.6,30.08,SE,130,2.0,8.0,71,0.00,,FEW,0.00,909.00,VWS V14.01,2013-04-09 17:26:00,
2013-04-09 13:28:00,83.2,73.2,30.08,ENE,60,2.0,8.0,72,0.00,,FEW,0.00,940.00,VWS V14.01,2013-04-09 17:28:00,
2013-04-09 13:29:00,83.3,72.9,30.08,SE,139,3.0,8.0,71,0.00,,FEW,0.00,988.00,VWS V14.01,2013-04-09 17:29:00,
2013-04-09 13:30:00,83.3,73.3,30.08,NE,40,6.0,9.0,72,0.00,,FEW,0.00,991.00,VWS V14.01,2013-04-09 17:30:00,
2013-04-09 13:32:00,83.2,72.8,30.08,ENE,73,2.0,9.0,71,0.00,,FEW,0.00,993.00,VWS V14.01,2013-04-09 17:32:00,
2013-04-09 13:33:00,83.1,72.7,30.08,ESE,116,3.0,7.0,71,0.00,,FEW,0.00,988.00,VWS V14.01,2013-04-09 17:33:00,
2013-04-09 13:34:00,83.2,73.2,30.08,East,88,6.0,7.0,72,0.00,,FEW,0.00,944.00,VWS V14.01,2013-04-09 17:34:00,
2013-04-09 13:35:00,83.2,72.8,30.08,NE,52,3.0,7.0,71,0.00,,FEW,0.00,944.00,VWS V14.01,2013-04-09 17:35:00,
2013-04-09 13:37:00,83.2,72.8,30.08,East,86,10.0,10.0,71,0.00,,FEW,0.00,960.00,VWS V14.01,2013-04-09 17:37:00,
2013-04-09 13:38:00,83.2,72.8,30.08,ENE,66,2.0,10.0,71,0.00,,FEW,0.00,976.00,VWS V14.01,2013-04-09 17:38:00,
2013-04-09 13:39:00,83.2,72.8,30.08,ENE,69,2.0,10.0,71,0.00,,FEW,0.00,988.00,VWS V14.01,2013-04-09 17:39:00,
2013-04-09 13:40:00,83.3,73.3,30.08,ESE,115,2.0,10.0,72,0.00,,FEW,0.00,979.00,VWS V14.01,2013-04-09 17:40:00,
2013-04-09 13:43:00,84.2,73.8,30.08,NE,53,4.0,10.0,71,0.00,,FEW,0.00,956.00,VWS V14.01,2013-04-09 17:43:00,
2013-04-09 13:45:00,84.0,73.2,30.08,ESE,104,5.0,10.0,70,0.00,,FEW,0.00,946.00,VWS V14.01,2013-04-09 17:45:00,
2013-04-09 13:48:00,84.1,73.3,30.07,NNE,21,7.0,10.0,70,0.00,,FEW,0.00,937.00,VWS V14.01,2013-04-09 17:48:00,
2013-04-09 13:49:00,84.1,73.3,30.07,East,100,2.0,10.0,70,0.00,,FEW,0.00,954.00,VWS V14.01,2013-04-09 17:49:00,
2013-04-09 13:50:00,84.2,73.8,30.07,ESE,103,4.0,10.0,71,0.00,,FEW,0.00,947.00,VWS V14.01,2013-04-09 17:50:00,
2013-04-09 13:53:00,84.1,73.7,30.07,SE,129,5.0,9.0,71,0.00,,FEW,0.00,942.00,VWS V14.01,2013-04-09 17:53:00,
2013-04-09 13:54:00,83.9,73.5,30.07,ENE,76,3.0,9.0,71,0.00,,FEW,0.00,947.00,VWS V14.01,2013-04-09 17:54:00,
2013-04-09 13:55:00,83.8,73.4,30.07,ESE,109,2.0,9.0,71,0.00,,FEW,0.00,956.00,VWS V14.01,2013-04-09 17:55:00,
2013-04-09 13:59:00,83.8,73.4,30.07,SE,124,3.0,9.0,71,0.00,,FEW,0.00,962.00,VWS V14.01,2013-04-09 17:59:00,
2013-04-09 14:00:00,83.6,73.2,30.07,ENE,67,4.0,9.0,71,0.00,,FEW,0.00,962.00,VWS V14.01,2013-04-09 18:00:00,
2013-04-09 14:01:00,83.6,73.6,30.07,East,88,3.0,9.0,72,0.00,,FEW,0.00,844.00,VWS V14.01,2013-04-09 18:01:00,
2013-04-09 14:04:00,83.9,73.5,30.07,ESE,103,10.0,10.0,71,0.00,,FEW,0.00,891.00,VWS V14.01,2013-04-09 18:04:00,
2013-04-09 14:05:00,83.9,73.5,30.07,East,83,6.0,10.0,71,0.00,,FEW,0.00,921.00,VWS V14.01,2013-04-09 18:05:00,
2013-04-09 14:06:00,83.9,73.5,30.07,East,85,2.0,10.0,71,0.00,,FEW,0.00,921.00,VWS V14.01,2013-04-09 18:06:00,
2013-04-09 14:09:00,83.5,73.5,30.07,ENE,63,2.0,12.0,72,0.00,,FEW,0.00,907.00,VWS V14.01,2013-04-09 18:09:00,
2013-04-09 14:10:00,83.6,73.6,30.07,NNE,30,3.0,12.0,72,0.00,,FEW,0.00,969.00,VWS V14.01,2013-04-09 18:10:00,
2013-04-09 14:12:00,83.4,73.4,30.07,ESE,104,8.0,13.0,72,0.00,,FEW,0.00,1039.00,VWS V14.01,2013-04-09 18:12:00,
2013-04-09 14:15:00,83.1,73.1,30.07,NE,36,5.0,8.0,72,0.00,,FEW,0.00,425.00,VWS V14.01,2013-04-09 18:15:00,
2013-04-09 14:17:00,83.0,73.5,30.06,NE,40,5.0,13.0,73,0.00,,FEW,0.00,425.00,VWS V14.01,2013-04-09 18:17:00,
2013-04-09 14:20:00,83.1,73.1,30.06,SE,125,8.0,13.0,72,0.00,,FEW,0.00,425.00,VWS V14.01,2013-04-09 18:20:00,
2013-04-09 14:22:00,83.0,73.1,30.06,NE,44,3.0,13.0,72,0.00,,FEW,0.00,995.00,VWS V14.01,2013-04-09 18:22:00,
2013-04-09 14:25:00,83.0,73.9,30.06,ESE,107,2.0,10.0,74,0.00,,FEW,0.00,953.00,VWS V14.01,2013-04-09 18:25:00,
2013-04-09 14:26:00,83.1,74.0,30.06,NE,51,4.0,10.0,74,0.00,,FEW,0.00,953.00,VWS V14.01,2013-04-09 18:26:00,
2013-04-09 14:27:00,83.3,73.8,30.06,NE,49,2.0,13.0,73,0.00,,FEW,0.00,940.00,VWS V14.01,2013-04-09 18:27:00,
2013-04-09 14:30:00,83.3,73.8,30.06,NE,42,5.0,13.0,73,0.00,,FEW,0.00,923.00,VWS V14.01,2013-04-09 18:30:00,
2013-04-09 14:31:00,83.2,73.2,30.06,East,87,5.0,13.0,72,0.00,,FEW,0.00,923.00,VWS V14.01,2013-04-09 18:31:00,
2013-04-09 14:32:00,83.1,73.1,30.06,NE,45,5.0,13.0,72,0.00,,FEW,0.00,923.00,VWS V14.01,2013-04-09 18:32:00,
2013-04-09 14:35:00,82.9,73.4,30.06,ENE,57,4.0,8.0,73,0.00,,FEW,0.00,867.00,VWS V14.01,2013-04-09 18:35:00,
2013-04-09 14:37:00,82.9,72.9,30.06,ENE,72,7.0,13.0,72,0.00,,FEW,0.00,867.00,VWS V14.01,2013-04-09 18:37:00,
2013-04-09 14:40:00,83.0,73.1,30.06,East,84,15.0,15.0,72,0.00,,FEW,0.00,983.00,VWS V14.01,2013-04-09 18:40:00,
2013-04-09 14:42:00,83.0,73.1,30.06,ENE,67,3.0,15.0,72,0.00,,FEW,0.00,983.00,VWS V14.01,2013-04-09 18:42:00,
2013-04-09 14:43:00,83.0,73.1,30.06,ENE,75,3.0,8.0,72,0.00,,FEW,0.00,983.00,VWS V14.01,2013-04-09 18:43:00,
2013-04-09 14:46:00,83.0,73.1,30.06,East,84,5.0,10.0,72,0.00,,FEW,0.00,939.00,VWS V14.01,2013-04-09 18:46:00,
2013-04-09 14:47:00,83.0,73.5,30.06,NE,46,5.0,10.0,73,0.00,,FEW,0.00,930.00,VWS V14.01,2013-04-09 18:47:00,
2013-04-09 14:48:00,83.0,73.5,30.06,NE,56,2.0,10.0,73,0.00,,FEW,0.00,930.00,VWS V14.01,2013-04-09 18:48:00,
2013-04-09 14:51:00,83.4,73.4,30.06,SE,138,3.0,10.0,72,0.00,,FEW,0.00,900.00,VWS V14.01,2013-04-09 18:51:00,
2013-04-09 14:53:00,83.2,73.2,30.06,NE,40,3.0,9.0,72,0.00,,FEW,0.00,891.00,VWS V14.01,2013-04-09 18:53:00,
2013-04-09 14:56:00,82.9,73.4,30.06,NE,34,4.0,15.0,73,0.00,,FEW,0.00,888.00,VWS V14.01,2013-04-09 18:56:00,
2013-04-09 14:58:00,82.9,72.9,30.06,ENE,74,7.0,15.0,72,0.00,,FEW,0.00,884.00,VWS V14.01,2013-04-09 18:58:00,
2013-04-09 15:02:00,83.2,73.2,30.05,ESE,109,9.0,15.0,72,0.00,,FEW,0.00,875.00,VWS V14.01,2013-04-09 19:02:00,
2013-04-09 15:03:00,83.2,73.2,30.05,East,95,9.0,10.0,72,0.00,,FEW,0.00,872.00,VWS V14.01,2013-04-09 19:03:00,
2013-04-09 15:07:00,83.3,73.3,30.05,NE,56,1.0,11.0,72,0.00,,FEW,0.00,870.00,VWS V14.01,2013-04-09 19:07:00,
2013-04-09 15:08:00,83.3,73.3,30.05,East,83,6.0,11.0,72,0.00,,FEW,0.00,870.00,VWS V14.01,2013-04-09 19:08:00,
2013-04-09 15:12:00,83.1,73.1,30.05,ENE,68,3.0,7.0,72,0.00,,FEW,0.00,882.00,VWS V14.01,2013-04-09 19:12:00,
2013-04-09 15:13:00,83.0,73.1,30.05,ENE,66,1.0,7.0,72,0.00,,FEW,0.00,879.00,VWS V14.01,2013-04-09 19:13:00,
2013-04-09 15:18:00,83.2,73.2,30.05,ENE,76,4.0,10.0,72,0.00,,FEW,0.00,881.00,VWS V14.01,2013-04-09 19:18:00,
2013-04-09 15:23:00,83.1,73.1,30.05,NE,36,4.0,7.0,72,0.00,,FEW,0.00,819.00,VWS V14.01,2013-04-09 19:23:00,
2013-04-09 15:24:00,83.1,73.1,30.05,NE,46,2.0,7.0,72,0.00,,FEW,0.00,793.00,VWS V14.01,2013-04-09 19:24:00,
2013-04-09 15:28:00,83.3,72.9,30.05,ENE,74,4.0,10.0,71,0.00,,FEW,0.00,738.00,VWS V14.01,2013-04-09 19:28:00,
2013-04-09 15:29:00,83.2,73.2,30.05,East,99,2.0,10.0,72,0.00,,FEW,0.00,766.00,VWS V14.01,2013-04-09 19:29:00,
2013-04-09 15:32:00,83.0,73.1,30.05,East,88,7.0,10.0,72,0.00,,FEW,0.00,740.00,VWS V14.01,2013-04-09 19:32:00,
2013-04-09 15:33:00,82.8,72.9,30.05,ESE,109,2.0,9.0,72,0.00,,FEW,0.00,742.00,VWS V14.01,2013-04-09 19:33:00,
2013-04-09 15:34:00,82.7,73.2,30.05,ESE,105,7.0,9.0,73,0.00,,FEW,0.00,714.00,VWS V14.01,2013-04-09 19:34:00,
2013-04-09 15:37:00,82.7,73.2,30.05,SSE,164,2.0,9.0,73,0.00,,FEW,0.00,381.00,VWS V14.01,2013-04-09 19:37:00,
2013-04-09 15:38:00,82.7,73.2,30.05,SE,126,5.0,9.0,73,0.00,,FEW,0.00,376.00,VWS V14.01,2013-04-09 19:38:00,
2013-04-09 15:39:00,82.5,73.0,30.05,ENE,65,3.0,9.0,73,0.00,,FEW,0.00,612.00,VWS V14.01,2013-04-09 19:39:00,
2013-04-09 15:42:00,82.4,73.3,30.05,ENE,65,3.0,11.0,74,0.00,,FEW,0.00,563.00,VWS V14.01,2013-04-09 19:42:00,
2013-04-09 15:43:00,82.3,73.2,30.05,NE,40,5.0,7.0,74,0.00,,FEW,0.00,490.00,VWS V14.01,2013-04-09 19:43:00,
2013-04-09 15:44:00,82.3,73.2,30.05,NE,43,7.0,7.0,74,0.00,,FEW,0.00,429.00,VWS V14.01,2013-04-09 19:44:00,
2013-04-09 15:47:00,82.3,73.2,30.05,ENE,65,11.0,13.0,74,0.00,,FEW,0.00,432.00,VWS V14.01,2013-04-09 19:47:00,
2013-04-09 15:49:00,82.2,73.1,30.05,NE,43,3.0,13.0,74,0.00,,FEW,0.00,517.00,VWS V14.01,2013-04-09 19:49:00,
2013-04-09 15:50:00,82.2,73.5,30.05,ENE,76,4.0,13.0,75,0.00,,FEW,0.00,492.00,VWS V14.01,2013-04-09 19:50:00,
2013-04-09 15:53:00,82.3,73.2,30.05,ENE,72,8.0,9.0,74,0.00,,FEW,0.00,543.00,VWS V14.01,2013-04-09 19:53:00,
2013-04-09 15:54:00,82.1,73.0,30.05,ESE,111,7.0,10.0,74,0.00,,FEW,0.00,548.00,VWS V14.01,2013-04-09 19:54:00,
2013-04-09 15:55:00,82.0,72.5,30.05,ENE,71,9.0,14.0,73,0.00,,FEW,0.00,513.00,VWS V14.01,2013-04-09 19:55:00,
2013-04-09 15:58:00,81.8,73.1,30.05,NE,55,2.0,14.0,75,0.00,,FEW,0.00,476.00,VWS V14.01,2013-04-09 19:58:00,
2013-04-09 15:59:00,81.8,72.7,30.05,ENE,61,3.0,14.0,74,0.00,,FEW,0.00,543.00,VWS V14.01,2013-04-09 19:59:00,
2013-04-09 16:00:00,81.8,72.7,30.05,East,81,6.0,14.0,74,0.00,,FEW,0.00,543.00,VWS V14.01,2013-04-09 20:00:00,
2013-04-09 16:01:00,81.8,72.7,30.05,ENE,71,9.0,14.0,74,0.00,,FEW,0.00,524.00,VWS V14.01,2013-04-09 20:01:00,
2013-04-09 16:03:00,81.8,72.7,30.04,East,87,9.0,9.0,74,0.00,,FEW,0.00,582.00,VWS V14.01,2013-04-09 20:03:00,
2013-04-09 16:04:00,81.8,72.7,30.04,NNE,28,2.0,9.0,74,0.00,,FEW,0.00,564.00,VWS V14.01,2013-04-09 20:04:00,
2013-04-09 16:05:00,81.7,72.6,30.04,SE,142,5.0,9.0,74,0.00,,FEW,0.00,585.00,VWS V14.01,2013-04-09 20:05:00,
2013-04-09 16:06:00,81.8,72.7,30.04,ESE,109,4.0,9.0,74,0.00,,FEW,0.00,582.00,VWS V14.01,2013-04-09 20:06:00,
2013-04-09 16:08:00,81.9,72.8,30.04,SE,127,6.0,9.0,74,0.00,,FEW,0.00,580.00,VWS V14.01,2013-04-09 20:08:00,
2013-04-09 16:10:00,81.9,72.8,30.04,East,80,7.0,9.0,74,0.00,,FEW,0.00,538.00,VWS V14.01,2013-04-09 20:10:00,
2013-04-09 16:12:00,81.9,72.8,30.04,ENE,73,3.0,9.0,74,0.00,,FEW,0.00,452.00,VWS V14.01,2013-04-09 20:12:00,
2013-04-09 16:13:00,81.9,72.8,30.04,SE,131,4.0,8.0,74,0.00,,FEW,0.00,438.00,VWS V14.01,2013-04-09 20:13:00,
2013-04-09 16:15:00,81.8,72.7,30.04,ESE,111,3.0,9.0,74,0.00,,FEW,0.00,381.00,VWS V14.01,2013-04-09 20:15:00,
2013-04-09 16:17:00,81.7,72.6,30.04,NE,49,5.0,9.0,74,0.00,,FEW,0.00,367.00,VWS V14.01,2013-04-09 20:17:00,
2013-04-09 16:18:00,81.5,72.4,30.04,ENE,69,5.0,9.0,74,0.00,,FEW,0.00,454.00,VWS V14.01,2013-04-09 20:18:00,
2013-04-09 16:20:00,81.3,72.6,30.04,SE,130,3.0,9.0,75,0.00,,FEW,0.00,631.00,VWS V14.01,2013-04-09 20:20:00,
2013-04-09 16:22:00,81.4,72.7,30.04,SE,133,4.0,9.0,75,0.00,,FEW,0.00,599.00,VWS V14.01,2013-04-09 20:22:00,
2013-04-09 16:23:00,81.5,72.8,30.04,NE,40,5.0,8.0,75,0.00,,FEW,0.00,504.00,VWS V14.01,2013-04-09 20:23:00,
2013-04-09 16:26:00,81.6,72.9,30.04,East,86,2.0,8.0,75,0.00,,FEW,0.00,411.00,VWS V14.01,2013-04-09 20:26:00,
2013-04-09 16:27:00,81.8,73.1,30.04,SSE,148,4.0,8.0,75,0.00,,FEW,0.00,786.00,VWS V14.01,2013-04-09 20:27:00,
2013-04-09 16:29:00,82.0,72.9,30.04,ENE,59,7.0,12.0,74,0.00,,FEW,0.00,770.00,VWS V14.01,2013-04-09 20:29:00,
2013-04-09 16:31:00,82.0,72.9,30.04,East,98,3.0,12.0,74,0.00,,FEW,0.00,645.00,VWS V14.01,2013-04-09 20:31:00,
2013-04-09 16:32:00,82.1,73.0,30.03,NE,36,4.0,12.0,74,0.00,,FEW,0.00,693.00,VWS V14.01,2013-04-09 20:32:00,
2013-04-09 16:34:00,82.1,72.6,30.03,ENE,78,4.0,8.0,73,0.00,,FEW,0.00,668.00,VWS V14.01,2013-04-09 20:34:00,
2013-04-09 16:36:00,82.3,73.2,30.03,East,97,7.0,9.0,74,0.00,,FEW,0.00,591.00,VWS V14.01,2013-04-09 20:36:00,
2013-04-09 16:37:00,82.3,73.2,30.03,East,90,13.0,13.0,74,0.00,,FEW,0.00,591.00,VWS V14.01,2013-04-09 20:37:00,
2013-04-09 16:39:00,82.2,72.7,30.03,NE,48,3.0,13.0,73,0.00,,FEW,0.00,628.00,VWS V14.01,2013-04-09 20:39:00,
2013-04-09 16:41:00,82.2,73.1,30.03,East,84,7.0,13.0,74,0.00,,FEW,0.00,640.00,VWS V14.01,2013-04-09 20:41:00,
2013-04-09 16:42:00,82.2,73.1,30.03,ENE,78,5.0,13.0,74,0.00,,FEW,0.00,640.00,VWS V14.01,2013-04-09 20:42:00,
2013-04-09 16:44:00,82.2,73.1,30.03,ENE,70,2.0,7.0,74,0.00,,FEW,0.00,656.00,VWS V14.01,2013-04-09 20:44:00,
2013-04-09 16:47:00,82.4,73.3,30.03,NE,50,5.0,9.0,74,0.00,,FEW,0.00,647.00,VWS V14.01,2013-04-09 20:47:00,
2013-04-09 16:48:00,82.4,72.9,30.03,SE,125,8.0,10.0,73,0.00,,FEW,0.00,638.00,VWS V14.01,2013-04-09 20:48:00,
2013-04-09 16:49:00,82.4,72.9,30.03,ESE,115,3.0,10.0,73,0.00,,FEW,0.00,635.00,VWS V14.01,2013-04-09 20:49:00,
2013-04-09 16:52:00,82.3,72.4,30.03,East,86,5.0,11.0,72,0.00,,FEW,0.00,613.00,VWS V14.01,2013-04-09 20:52:00,
2013-04-09 16:53:00,82.3,72.8,30.03,ENE,63,10.0,10.0,73,0.00,,FEW,0.00,613.00,VWS V14.01,2013-04-09 20:53:00,
2013-04-09 16:54:00,82.1,72.2,30.03,ESE,107,4.0,10.0,72,0.00,,FEW,0.00,624.00,VWS V14.01,2013-04-09 20:54:00,
2013-04-09 16:57:00,82.0,72.5,30.03,ENE,62,10.0,11.0,73,0.00,,FEW,0.00,615.00,VWS V14.01,2013-04-09 20:57:00,
2013-04-09 16:59:00,82.1,72.6,30.03,East,93,3.0,11.0,73,0.00,,FEW,0.00,615.00,VWS V14.01,2013-04-09 20:59:00,
2013-04-09 17:02:00,82.3,72.4,30.03,NE,38,4.0,11.0,72,0.00,,FEW,0.00,571.00,VWS V14.01,2013-04-09 21:02:00,
2013-04-09 17:04:00,82.2,71.9,30.03,ESE,114,3.0,12.0,71,0.00,,FEW,0.00,589.00,VWS V14.01,2013-04-09 21:04:00,
2013-04-09 17:05:00,82.1,72.2,30.03,NE,45,2.0,12.0,72,0.00,,FEW,0.00,547.00,VWS V14.01,2013-04-09 21:05:00,
2013-04-09 17:07:00,82.1,72.2,30.03,ENE,63,3.0,12.0,72,0.00,,FEW,0.00,585.00,VWS V14.01,2013-04-09 21:07:00,
2013-04-09 17:09:00,82.1,72.2,30.03,SE,138,1.0,12.0,72,0.00,,FEW,0.00,568.00,VWS V14.01,2013-04-09 21:09:00,
2013-04-09 17:10:00,82.1,72.6,30.03,ENE,74,5.0,12.0,73,0.00,,FEW,0.00,568.00,VWS V14.01,2013-04-09 21:10:00,
2013-04-09 17:12:00,82.2,72.3,30.03,ENE,76,7.0,12.0,72,0.00,,FEW,0.00,554.00,VWS V14.01,2013-04-09 21:12:00,
2013-04-09 17:14:00,82.0,72.1,30.03,East,82,3.0,9.0,72,0.00,,FEW,0.00,534.00,VWS V14.01,2013-04-09 21:14:00,
2013-04-09 17:15:00,82.0,72.1,30.03,East,101,3.0,9.0,72,0.00,,FEW,0.00,527.00,VWS V14.01,2013-04-09 21:15:00,
2013-04-09 17:17:00,82.0,72.1,30.03,ENE,76,8.0,10.0,72,0.00,,FEW,0.00,524.00,VWS V14.01,2013-04-09 21:17:00,
2013-04-09 17:20:00,81.8,72.3,30.03,SE,126,4.0,10.0,73,0.00,,FEW,0.00,508.00,VWS V14.01,2013-04-09 21:20:00,
2013-04-09 17:21:00,81.8,72.3,30.03,East,96,3.0,10.0,73,0.00,,FEW,0.00,490.00,VWS V14.01,2013-04-09 21:21:00,
2013-04-09 17:22:00,81.7,72.2,30.03,ENE,71,8.0,10.0,73,0.00,,FEW,0.00,469.00,VWS V14.01,2013-04-09 21:22:00,
2013-04-09 17:23:00,81.6,72.1,30.03,ENE,73,8.0,9.0,73,0.00,,FEW,0.00,422.00,VWS V14.01,2013-04-09 21:23:00,
2013-04-09 17:25:00,81.4,71.9,30.03,SSE,153,6.0,12.0,73,0.00,,FEW,0.00,378.00,VWS V14.01,2013-04-09 21:25:00,
2013-04-09 17:26:00,81.3,71.8,30.03,ENE,61,5.0,12.0,73,0.00,,FEW,0.00,404.00,VWS V14.01,2013-04-09 21:26:00,
2013-04-09 17:27:00,81.2,72.1,30.03,East,81,5.0,12.0,74,0.00,,FEW,0.00,420.00,VWS V14.01,2013-04-09 21:27:00,
2013-04-09 17:28:00,81.2,72.1,30.03,NE,35,5.0,12.0,74,0.00,,FEW,0.00,427.00,VWS V14.01,2013-04-09 21:28:00,
2013-04-09 17:30:00,81.2,72.1,30.03,East,81,5.0,12.0,74,0.00,,FEW,0.00,422.00,VWS V14.01,2013-04-09 21:30:00,
2013-04-09 17:32:00,81.1,71.6,30.03,ENE,64,5.0,12.0,73,0.00,,FEW,0.00,330.00,VWS V14.01,2013-04-09 21:32:00,
2013-04-09 17:33:00,81.1,71.6,30.03,SE,130,6.0,7.0,73,0.00,,FEW,0.00,461.00,VWS V14.01,2013-04-09 21:33:00,
2013-04-09 17:35:00,81.1,71.6,30.03,ESE,119,5.0,9.0,73,0.00,,FEW,0.00,443.00,VWS V14.01,2013-04-09 21:35:00,
2013-04-09 17:37:00,81.1,71.6,30.03,East,89,9.0,9.0,73,0.00,,FEW,0.00,452.00,VWS V14.01,2013-04-09 21:37:00,
2013-04-09 17:38:00,81.0,71.5,30.03,NE,51,3.0,9.0,73,0.00,,FEW,0.00,448.00,VWS V14.01,2013-04-09 21:38:00,
2013-04-09 17:40:00,81.1,72.0,30.03,SE,126,4.0,10.0,74,0.00,,FEW,0.00,445.00,VWS V14.01,2013-04-09 21:40:00,
2013-04-09 17:42:00,81.2,72.1,30.03,ENE,76,3.0,10.0,74,0.00,,FEW,0.00,432.00,VWS V14.01,2013-04-09 21:42:00,
2013-04-09 17:43:00,81.3,72.2,30.03,ENE,64,4.0,9.0,74,0.00,,FEW,0.00,424.00,VWS V14.01,2013-04-09 21:43:00,
2013-04-09 17:45:00,81.3,71.8,30.03,East,80,5.0,9.0,73,0.00,,FEW,0.00,380.00,VWS V14.01,2013-04-09 21:45:00,
2013-04-09 17:47:00,81.2,71.7,30.03,East,92,8.0,9.0,73,0.00,,FEW,0.00,352.00,VWS V14.01,2013-04-09 21:47:00,
2013-04-09 17:48:00,81.1,71.6,30.03,SE,125,7.0,9.0,73,0.00,,FEW,0.00,350.00,VWS V14.01,2013-04-09 21:48:00,
2013-04-09 17:50:00,80.9,71.4,30.03,ENE,75,7.0,11.0,73,0.00,,FEW,0.00,357.00,VWS V14.01,2013-04-09 21:50:00,
2013-04-09 17:52:00,80.7,71.2,30.03,ENE,65,8.0,8.0,73,0.00,,FEW,0.00,341.00,VWS V14.01,2013-04-09 21:52:00,
2013-04-09 17:54:00,80.7,71.7,30.03,East,88,3.0,11.0,74,0.00,,FEW,0.00,255.00,VWS V14.01,2013-04-09 21:54:00,
2013-04-09 17:56:00,80.6,71.6,30.03,East,82,3.0,11.0,74,0.00,,FEW,0.00,279.00,VWS V14.01,2013-04-09 21:56:00,
2013-04-09 17:57:00,80.6,71.6,30.03,ENE,73,4.0,11.0,74,0.00,,FEW,0.00,369.00,VWS V14.01,2013-04-09 21:57:00,
2013-04-09 17:58:00,80.6,71.9,30.03,SE,126,7.0,11.0,75,0.00,,FEW,0.00,369.00,VWS V14.01,2013-04-09 21:58:00,
2013-04-09 17:59:00,80.5,71.5,30.03,SE,126,6.0,11.0,74,0.00,,FEW,0.00,332.00,VWS V14.01,2013-04-09 21:59:00,
2013-04-09 18:01:00,80.4,71.4,30.03,ENE,66,7.0,11.0,74,0.00,,FEW,0.00,350.00,VWS V14.01,2013-04-09 22:01:00,
2013-04-09 18:03:00,80.4,71.4,30.03,ENE,74,2.0,6.0,74,0.00,,FEW,0.00,348.00,VWS V14.01,2013-04-09 22:03:00,
2013-04-09 18:05:00,80.4,71.4,30.03,NNE,33,4.0,11.0,74,0.00,,FEW,0.00,153.00,VWS V14.01,2013-04-09 22:05:00,
2013-04-09 18:06:00,80.4,71.4,30.03,ENE,61,4.0,11.0,74,0.00,,FEW,0.00,209.00,VWS V14.01,2013-04-09 22:06:00,
2013-04-09 18:08:00,80.3,71.3,30.03,ENE,73,1.0,11.0,74,0.00,,FEW,0.00,315.00,VWS V14.01,2013-04-09 22:08:00,
2013-04-09 18:10:00,80.3,71.3,30.03,ENE,59,5.0,11.0,74,0.00,,FEW,0.00,316.00,VWS V14.01,2013-04-09 22:10:00,
2013-04-09 18:12:00,80.3,71.3,30.03,East,80,5.0,11.0,74,0.00,,FEW,0.00,311.00,VWS V14.01,2013-04-09 22:12:00,
2013-04-09 18:13:00,80.3,71.3,30.03,ENE,63,8.0,8.0,74,0.00,,FEW,0.00,306.00,VWS V14.01,2013-04-09 22:13:00,
2013-04-09 18:16:00,80.2,71.2,30.03,ENE,69,2.0,8.0,74,0.00,,FEW,0.00,288.00,VWS V14.01,2013-04-09 22:16:00,
2013-04-09 18:17:00,80.2,71.2,30.03,NE,56,6.0,13.0,74,0.00,,FEW,0.00,288.00,VWS V14.01,2013-04-09 22:17:00,
2013-04-09 18:18:00,80.1,71.5,30.03,ESE,118,3.0,13.0,75,0.00,,FEW,0.00,283.00,VWS V14.01,2013-04-09 22:18:00,
2013-04-09 18:19:00,80.1,71.5,30.03,NE,44,4.0,13.0,75,0.00,,FEW,0.00,276.00,VWS V14.01,2013-04-09 22:19:00,
2013-04-09 18:21:00,80.1,71.5,30.03,ENE,65,8.0,13.0,75,0.00,,FEW,0.00,257.00,VWS V14.01,2013-04-09 22:21:00,
2013-04-09 18:22:00,80.1,71.5,30.03,East,83,5.0,13.0,75,0.00,,FEW,0.00,255.00,VWS V14.01,2013-04-09 22:22:00,
2013-04-09 18:23:00,80.1,71.5,30.03,ENE,73,4.0,7.0,75,0.00,,FEW,0.00,250.00,VWS V14.01,2013-04-09 22:23:00,
2013-04-09 18:24:00,80.1,71.5,30.03,NE,46,3.0,9.0,75,0.00,,FEW,0.00,250.00,VWS V14.01,2013-04-09 22:24:00,
2013-04-09 18:26:00,80.0,71.4,30.03,ENE,64,2.0,9.0,75,0.00,,FEW,0.00,234.00,VWS V14.01,2013-04-09 22:26:00,
2013-04-09 18:27:00,80.0,71.4,30.03,ENE,76,4.0,9.0,75,0.00,,FEW,0.00,229.00,VWS V14.01,2013-04-09 22:27:00,
2013-04-09 18:28:00,80.0,71.4,30.03,ENE,65,3.0,9.0,75,0.00,,FEW,0.00,223.00,VWS V14.01,2013-04-09 22:28:00,
2013-04-09 18:29:00,80.0,71.4,30.03,ENE,78,8.0,10.0,75,0.00,,FEW,0.00,214.00,VWS V14.01,2013-04-09 22:29:00,
2013-04-09 18:31:00,80.0,71.4,30.03,ENE,71,3.0,10.0,75,0.00,,FEW,0.00,206.00,VWS V14.01,2013-04-09 22:31:00,
2013-04-09 18:32:00,79.9,71.3,30.03,NE,40,5.0,10.0,75,0.00,,FEW,0.00,206.00,VWS V14.01,2013-04-09 22:32:00,
2013-04-09 18:33:00,79.8,71.2,30.03,East,80,2.0,8.0,75,0.00,,FEW,0.00,202.00,VWS V14.01,2013-04-09 22:33:00,
2013-04-09 18:35:00,79.9,71.3,30.03,ENE,78,7.0,8.0,75,0.00,,FEW,0.00,193.00,VWS V14.01,2013-04-09 22:35:00,
2013-04-09 18:37:00,79.8,71.2,30.03,ENE,73,2.0,8.0,75,0.00,,FEW,0.00,188.00,VWS V14.01,2013-04-09 22:37:00,
2013-04-09 18:38:00,79.9,71.3,30.03,ENE,68,8.0,8.0,75,0.00,,FEW,0.00,181.00,VWS V14.01,2013-04-09 22:38:00,
2013-04-09 18:40:00,79.8,71.2,30.03,ENE,77,2.0,8.0,75,0.00,,FEW,0.00,153.00,VWS V14.01,2013-04-09 22:40:00,
2013-04-09 18:42:00,79.8,71.2,30.03,NE,51,4.0,8.0,75,0.00,,FEW,0.00,160.00,VWS V14.01,2013-04-09 22:42:00,
2013-04-09 18:43:00,79.7,71.1,30.03,ENE,66,5.0,9.0,75,0.00,,FEW,0.00,160.00,VWS V14.01,2013-04-09 22:43:00,
2013-04-09 18:45:00,79.6,71.0,30.03,NE,47,4.0,10.0,75,0.00,,FEW,0.00,153.00,VWS V14.01,2013-04-09 22:45:00,
2013-04-09 18:47:00,79.5,70.9,30.03,ENE,72,7.0,10.0,75,0.00,,FEW,0.00,146.00,VWS V14.01,2013-04-09 22:47:00,
2013-04-09 18:48:00,79.5,70.9,30.03,ENE,66,12.0,12.0,75,0.00,,FEW,0.00,144.00,VWS V14.01,2013-04-09 22:48:00,
2013-04-09 18:50:00,79.3,71.1,30.03,ESE,120,5.0,12.0,76,0.00,,FEW,0.00,137.00,VWS V14.01,2013-04-09 22:50:00,
2013-04-09 18:52:00,79.2,71.0,30.03,East,82,3.0,4.0,76,0.00,,FEW,0.00,128.00,VWS V14.01,2013-04-09 22:52:00,
2013-04-09 18:53:00,79.2,71.0,30.03,ENE,72,2.0,8.0,76,0.00,,FEW,0.00,125.00,VWS V14.01,2013-04-09 22:53:00,
2013-04-09 18:57:00,78.9,70.7,30.03,ESE,102,8.0,9.0,76,0.00,,FEW,0.00,107.00,VWS V14.01,2013-04-09 22:57:00,
2013-04-09 18:58:00,78.9,70.7,30.03,ENE,58,4.0,9.0,76,0.00,,FEW,0.00,107.00,VWS V14.01,2013-04-09 22:58:00,
2013-04-09 19:03:00,78.7,70.5,30.03,ESE,105,8.0,8.0,76,0.00,,FEW,0.00,91.00,VWS V14.01,2013-04-09 23:03:00,
2013-04-09 19:08:00,78.3,70.5,30.03,NE,43,3.0,9.0,77,0.00,,FEW,0.00,74.00,VWS V14.01,2013-04-09 23:08:00,
2013-04-09 19:09:00,78.3,70.5,30.03,East,87,2.0,9.0,77,0.00,,FEW,0.00,74.00,VWS V14.01,2013-04-09 23:09:00,
2013-04-09 19:13:00,78.3,70.5,30.03,NNE,29,5.0,7.0,77,0.00,,FEW,0.00,58.00,VWS V14.01,2013-04-09 23:13:00,
2013-04-09 19:14:00,78.3,70.5,30.03,NE,34,8.0,8.0,77,0.00,,FEW,0.00,54.00,VWS V14.01,2013-04-09 23:14:00,
2013-04-09 19:18:00,78.0,70.2,30.03,East,84,3.0,11.0,77,0.00,,FEW,0.00,44.00,VWS V14.01,2013-04-09 23:18:00,
2013-04-09 19:19:00,78.0,70.2,30.03,ENE,66,1.0,11.0,77,0.00,,FEW,0.00,40.00,VWS V14.01,2013-04-09 23:19:00,
2013-04-09 19:23:00,77.9,70.5,30.03,NNE,21,2.0,6.0,78,0.00,,FEW,0.00,30.00,VWS V14.01,2013-04-09 23:23:00,
2013-04-09 19:24:00,77.8,70.4,30.03,ENE,64,4.0,6.0,78,0.00,,FEW,0.00,30.00,VWS V14.01,2013-04-09 23:24:00,
2013-04-09 19:28:00,77.7,70.3,30.03,East,81,3.0,9.0,78,0.00,,FEW,0.00,19.00,VWS V14.01,2013-04-09 23:28:00,
2013-04-09 19:29:00,77.7,70.3,30.03,ENE,59,4.0,9.0,78,0.00,,FEW,0.00,19.00,VWS V14.01,2013-04-09 23:29:00,
2013-04-09 19:33:00,77.6,70.6,30.03,East,86,8.0,8.0,79,0.00,,FEW,0.00,12.00,VWS V14.01,2013-04-09 23:33:00,
2013-04-09 19:34:00,77.6,70.6,30.03,ENE,74,7.0,8.0,79,0.00,,FEW,0.00,11.00,VWS V14.01,2013-04-09 23:34:00,
2013-04-09 19:39:00,77.5,70.5,30.03,ESE,113,2.0,13.0,79,0.00,,FEW,0.00,5.00,VWS V14.01,2013-04-09 23:39:00,
2013-04-09 19:44:00,77.3,70.7,30.03,NE,54,8.0,8.0,80,0.00,,FEW,0.00,0.00,VWS V14.01,2013-04-09 23:44:00,
2013-04-09 19:49:00,77.2,70.9,30.03,East,89,3.0,11.0,81,0.00,,FEW,0.00,0.00,VWS V14.01,2013-04-09 23:49:00,
2013-04-09 19:54:00,77.0,70.7,30.03,NE,43,2.0,10.0,81,0.00,,FEW,0.00,0.00,VWS V14.01,2013-04-09 23:54:00,
2013-04-09 19:59:00,76.9,71.0,30.03,NNE,15,5.0,12.0,82,0.00,,FEW,0.00,0.00,VWS V14.01,2013-04-09 23:59:00,
2013-04-09 20:00:00,76.9,71.0,30.03,East,96,5.0,12.0,82,0.00,,FEW,0.00,0.00,VWS V14.01,2013-04-10 00:00:00,
2013-04-09 20:04:00,76.7,70.8,30.03,ENE,67,7.0,9.0,82,0.00,,FEW,0.00,0.00,VWS V14.01,2013-04-10 00:04:00,
2013-04-09 20:05:00,76.7,70.8,30.03,ENE,71,7.0,9.0,82,0.00,,FEW,0.00,0.00,VWS V14.01,2013-04-10 00:05:00,
2013-04-09 20:09:00,76.6,71.1,30.03,ENE,63,8.0,9.0,83,0.00,,FEW,0.00,0.00,VWS V14.01,2013-04-10 00:09:00,
2013-04-09 20:10:00,76.6,71.1,30.03,North,5,6.0,11.0,83,0.00,,FEW,0.00,0.00,VWS V14.01,2013-04-10 00:10:00,
2013-04-09 20:14:00,76.6,71.1,30.03,ENE,67,3.0,8.0,83,0.00,,FEW,0.00,0.00,VWS V14.01,2013-04-10 00:14:00,
2013-04-09 20:15:00,76.5,71.0,30.03,ENE,68,2.0,8.0,83,0.00,,FEW,0.00,0.00,VWS V14.01,2013-04-10 00:15:00,
2013-04-09 20:19:00,76.5,71.0,30.03,NE,44,2.0,9.0,83,0.00,,FEW,0.00,0.00,VWS V14.01,2013-04-10 00:19:00,
2013-04-09 20:20:00,76.5,71.0,30.03,ENE,60,10.0,10.0,83,0.00,,FEW,0.00,0.00,VWS V14.01,2013-04-10 00:20:00,
2013-04-09 20:24:00,76.4,70.9,30.03,ENE,61,11.0,11.0,83,0.00,,FEW,0.00,0.00,VWS V14.01,2013-04-10 00:24:00,
2013-04-09 20:25:00,76.4,70.9,30.03,NE,40,5.0,11.0,83,0.00,,FEW,0.00,0.00,VWS V14.01,2013-04-10 00:25:00,
2013-04-09 20:26:00,76.4,71.2,30.03,ENE,58,7.0,11.0,84,0.00,,FEW,0.00,0.00,VWS V14.01,2013-04-10 00:26:00,
2013-04-09 20:29:00,76.4,71.2,30.03,NE,42,1.0,11.0,84,0.00,,FEW,0.00,0.00,VWS V14.01,2013-04-10 00:29:00,
2013-04-09 20:30:00,76.4,71.2,30.03,NNE,19,3.0,11.0,84,0.00,,FEW,0.00,0.00,VWS V14.01,2013-04-10 00:30:00,
2013-04-09 20:31:00,76.3,71.1,30.03,ENE,71,5.0,11.0,84,0.00,,FEW,0.00,0.00,VWS V14.01,2013-04-10 00:31:00,
2013-04-09 20:34:00,76.3,71.1,30.03,NE,55,7.0,7.0,84,0.00,,FEW,0.00,0.00,VWS V14.01,2013-04-10 00:34:00,
2013-04-09 20:35:00,76.3,71.1,30.03,ENE,75,5.0,7.0,84,0.00,,FEW,0.00,0.00,VWS V14.01,2013-04-10 00:35:00,
2013-04-09 20:37:00,76.3,71.1,30.03,ENE,74,4.0,11.0,84,0.00,,FEW,0.00,0.00,VWS V14.01,2013-04-10 00:37:00,
2013-04-09 20:39:00,76.3,71.1,30.03,ENE,77,3.0,11.0,84,0.00,,FEW,0.00,0.00,VWS V14.01,2013-04-10 00:39:00,
2013-04-09 20:40:00,76.3,71.1,30.03,East,85,5.0,11.0,84,0.00,,FEW,0.00,0.00,VWS V14.01,2013-04-10 00:40:00,
2013-04-09 20:42:00,76.3,71.1,30.03,NNE,32,3.0,11.0,84,0.00,,FEW,0.00,0.00,VWS V14.01,2013-04-10 00:42:00,
2013-04-09 20:45:00,76.2,71.0,30.03,East,84,6.0,11.0,84,0.00,,FEW,0.00,0.00,VWS V14.01,2013-04-10 00:45:00,
2013-04-09 20:47:00,76.2,71.0,30.03,ENE,59,4.0,13.0,84,0.00,,FEW,0.00,0.00,VWS V14.01,2013-04-10 00:47:00,
2013-04-09 20:50:00,76.2,71.0,30.03,ENE,73,2.0,13.0,84,0.00,,FEW,0.00,0.00,VWS V14.01,2013-04-10 00:50:00,
2013-04-09 20:52:00,76.2,71.0,30.03,ENE,63,2.0,13.0,84,0.00,,FEW,0.00,0.00,VWS V14.01,2013-04-10 00:52:00,
2013-04-09 20:55:00,76.2,71.0,30.03,NE,55,7.0,8.0,84,0.00,,FEW,0.00,0.00,VWS V14.01,2013-04-10 00:55:00,
2013-04-09 20:56:00,76.2,71.0,30.03,ENE,64,10.0,11.0,84,0.00,,FEW,0.00,0.00,VWS V14.01,2013-04-10 00:56:00,
2013-04-09 20:57:00,76.2,71.0,30.03,ENE,78,5.0,11.0,84,0.00,,FEW,0.00,0.00,VWS V14.01,2013-04-10 00:57:00,
2013-04-09 21:00:00,76.2,71.0,30.03,ENE,60,5.0,11.0,84,0.00,,FEW,0.00,0.00,VWS V14.01,2013-04-10 01:00:00,
2013-04-09 21:01:00,76.2,71.0,30.03,ENE,69,7.0,11.0,84,0.00,,FEW,0.00,0.00,VWS V14.01,2013-04-10 01:01:00,
2013-04-09 21:02:00,76.2,71.0,30.04,East,84,3.0,11.0,84,0.00,,FEW,0.00,0.00,VWS V14.01,2013-04-10 01:02:00,
2013-04-09 21:05:00,76.1,70.9,30.04,NE,43,5.0,7.0,84,0.00,,FEW,0.00,0.00,VWS V14.01,2013-04-10 01:05:00,
2013-04-09 21:06:00,76.1,70.9,30.04,ENE,63,5.0,7.0,84,0.00,,FEW,0.00,0.00,VWS V14.01,2013-04-10 01:06:00,
2013-04-09 21:07:00,76.1,70.9,30.04,ESE,123,5.0,12.0,84,0.00,,FEW,0.00,0.00,VWS V14.01,2013-04-10 01:07:00,
2013-04-09 21:10:00,76.1,70.9,30.04,East,82,5.0,12.0,84,0.00,,FEW,0.00,0.00,VWS V14.01,2013-04-10 01:10:00,
2013-04-09 21:11:00,76.1,70.9,30.04,East,90,2.0,12.0,84,0.00,,FEW,0.00,0.00,VWS V14.01,2013-04-10 01:11:00,
2013-04-09 21:12:00,76.1,70.9,30.04,NE,53,6.0,12.0,84,0.00,,FEW,0.00,0.00,VWS V14.01,2013-04-10 01:12:00,
2013-04-09 21:15:00,76.1,70.9,30.04,ENE,70,9.0,10.0,84,0.00,,FEW,0.00,0.00,VWS V14.01,2013-04-10 01:15:00,
2013-04-09 21:16:00,76.1,70.9,30.04,ENE,60,4.0,10.0,84,0.00,,FEW,0.00,0.00,VWS V14.01,2013-04-10 01:16:00,
2013-04-09 21:17:00,76.0,70.8,30.04,ENE,62,4.0,10.0,84,0.00,,FEW,0.00,0.00,VWS V14.01,2013-04-10 01:17:00,
2013-04-09 21:18:00,76.0,70.8,30.04,ENE,62,4.0,10.0,84,0.00,,FEW,0.00,0.00,VWS V14.01,2013-04-10 01:18:00,
2013-04-09 21:21:00,76.0,70.8,30.04,ENE,61,4.0,13.0,84,0.00,,FEW,0.00,0.00,VWS V14.01,2013-04-10 01:21:00,
2013-04-09 21:23:00,76.0,70.8,30.04,NE,48,4.0,5.0,84,0.00,,FEW,0.00,0.00,VWS V14.01,2013-04-10 01:23:00,
2013-04-09 21:26:00,76.0,70.8,30.04,East,79,5.0,11.0,84,0.00,,FEW,0.00,0.00,VWS V14.01,2013-04-10 01:26:00,
2013-04-09 21:28:00,76.0,71.2,30.04,East,88,9.0,11.0,85,0.00,,FEW,0.00,0.00,VWS V14.01,2013-04-10 01:28:00,
2013-04-09 21:31:00,76.0,71.2,30.04,NNE,33,3.0,11.0,85,0.00,,FEW,0.00,0.00,VWS V14.01,2013-04-10 01:31:00,
2013-04-09 21:33:00,76.0,71.2,30.05,East,85,3.0,5.0,85,0.00,,FEW,0.00,0.00,VWS V14.01,2013-04-10 01:33:00,
2013-04-09 21:36:00,76.0,71.2,30.05,ENE,61,3.0,7.0,85,0.00,,FEW,0.00,0.00,VWS V14.01,2013-04-10 01:36:00,
2013-04-09 21:38:00,76.0,71.2,30.05,ENE,57,2.0,9.0,85,0.00,,FEW,0.00,0.00,VWS V14.01,2013-04-10 01:38:00,
2013-04-09 21:41:00,76.0,71.2,30.05,NNE,17,6.0,10.0,85,0.00,,FEW,0.00,0.00,VWS V14.01,2013-04-10 01:41:00,
2013-04-09 21:42:00,76.0,71.2,30.05,NNE,24,3.0,10.0,85,0.00,,FEW,0.00,0.00,VWS V14.01,2013-04-10 01:42:00,
2013-04-09 21:43:00,76.0,71.2,30.05,NE,54,3.0,11.0,85,0.00,,FEW,0.00,0.00,VWS V14.01,2013-04-10 01:43:00,
2013-04-09 21:46:00,76.0,71.2,30.05,ESE,104,3.0,11.0,85,0.00,,FEW,0.00,0.00,VWS V14.01,2013-04-10 01:46:00,
2013-04-09 21:47:00,76.0,71.2,30.05,NE,47,7.0,11.0,85,0.00,,FEW,0.00,0.00,VWS V14.01,2013-04-10 01:47:00,
2013-04-09 21:48:00,76.0,71.2,30.05,NE,38,5.0,11.0,85,0.00,,FEW,0.00,0.00,VWS V14.01,2013-04-10 01:48:00,
2013-04-09 21:49:00,76.0,71.2,30.05,ESE,111,8.0,11.0,85,0.00,,FEW,0.00,0.00,VWS V14.01,2013-04-10 01:49:00,
2013-04-09 21:51:00,76.0,71.2,30.05,ENE,67,5.0,11.0,85,0.00,,FEW,0.00,0.00,VWS V14.01,2013-04-10 01:51:00,
2013-04-09 21:53:00,76.0,71.2,30.05,NE,52,5.0,7.0,85,0.00,,FEW,0.00,0.00,VWS V14.01,2013-04-10 01:53:00,
2013-04-09 21:54:00,76.0,71.2,30.05,NNE,17,7.0,7.0,85,0.00,,FEW,0.00,0.00,VWS V14.01,2013-04-10 01:54:00,
2013-04-09 21:57:00,76.0,71.2,30.05,ENE,69,2.0,11.0,85,0.00,,FEW,0.00,0.00,VWS V14.01,2013-04-10 01:57:00,
2013-04-09 21:58:00,76.0,71.2,30.05,East,93,9.0,11.0,85,0.00,,FEW,0.00,0.00,VWS V14.01,2013-04-10 01:58:00,
2013-04-09 21:59:00,76.0,71.2,30.05,NNE,19,3.0,11.0,85,0.00,,FEW,0.00,0.00,VWS V14.01,2013-04-10 01:59:00,
2013-04-09 22:02:00,76.0,71.2,30.06,North,5,7.0,11.0,85,0.00,,FEW,0.00,0.00,VWS V14.01,2013-04-10 02:02:00,
2013-04-09 22:03:00,76.0,70.8,30.06,ESE,121,8.0,8.0,84,0.00,,FEW,0.00,0.00,VWS V14.01,2013-04-10 02:03:00,
2013-04-09 22:04:00,76.0,70.8,30.06,NE,46,4.0,9.0,84,0.00,,FEW,0.00,0.00,VWS V14.01,2013-04-10 02:04:00,
2013-04-09 22:07:00,76.0,70.8,30.06,ESE,119,3.0,11.0,84,0.00,,FEW,0.00,0.00,VWS V14.01,2013-04-10 02:07:00,
2013-04-09 22:08:00,76.0,70.8,30.06,ENE,61,7.0,11.0,84,0.00,,FEW,0.00,0.00,VWS V14.01,2013-04-10 02:08:00,
2013-04-09 22:09:00,76.0,70.8,30.06,ENE,65,4.0,11.0,84,0.00,,FEW,0.00,0.00,VWS V14.01,2013-04-10 02:09:00,
2013-04-09 22:12:00,76.1,70.9,30.06,ENE,75,10.0,10.0,84,0.00,,FEW,0.00,0.00,VWS V14.01,2013-04-10 02:12:00,
2013-04-09 22:14:00,76.1,70.9,30.06,ENE,61,4.0,10.0,84,0.00,,FEW,0.00,0.00,VWS V14.01,2013-04-10 02:14:00,
2013-04-09 22:16:00,76.1,70.9,30.06,ENE,59,3.0,10.0,84,0.00,,FEW,0.00,0.00,VWS V14.01,2013-04-10 02:16:00,
2013-04-09 22:18:00,76.2,71.0,30.06,NNE,18,5.0,10.0,84,0.00,,FEW,0.00,0.00,VWS V14.01,2013-04-10 02:18:00,
2013-04-09 22:19:00,76.2,71.4,30.06,NE,50,4.0,10.0,85,0.00,,FEW,0.00,0.00,VWS V14.01,2013-04-10 02:19:00,
2013-04-09 22:20:00,76.1,71.3,30.06,ENE,69,5.0,10.0,85,0.00,,FEW,0.00,0.00,VWS V14.01,2013-04-10 02:20:00,
2013-04-09 22:21:00,76.1,71.3,30.06,ENE,67,4.0,10.0,85,0.00,,FEW,0.00,0.00,VWS V14.01,2013-04-10 02:21:00,
2013-04-09 22:23:00,76.1,71.3,30.06,NE,44,5.0,8.0,85,0.00,,FEW,0.00,0.00,VWS V14.01,2013-04-10 02:23:00,
2013-04-09 22:24:00,76.1,71.3,30.06,ESE,109,5.0,8.0,85,0.00,,FEW,0.00,0.00,VWS V14.01,2013-04-10 02:24:00,
2013-04-09 22:25:00,76.1,71.3,30.06,ENE,69,3.0,11.0,85,0.00,,FEW,0.00,0.00,VWS V14.01,2013-04-10 02:25:00,
2013-04-09 22:26:00,76.1,71.3,30.06,East,81,9.0,13.0,85,0.00,,FEW,0.00,0.00,VWS V14.01,2013-04-10 02:26:00,
2013-04-09 22:28:00,76.1,71.3,30.06,ENE,64,3.0,13.0,85,0.00,,FEW,0.00,0.00,VWS V14.01,2013-04-10 02:28:00,
2013-04-09 22:29:00,76.1,71.3,30.06,East,80,6.0,13.0,85,0.00,,FEW,0.00,0.00,VWS V14.01,2013-04-10 02:29:00,
2013-04-09 22:30:00,76.1,71.3,30.06,ENE,68,8.0,13.0,85,0.00,,FEW,0.00,0.00,VWS V14.01,2013-04-10 02:30:00,
2013-04-09 22:31:00,76.1,71.3,30.06,ENE,67,3.0,13.0,85,0.00,,FEW,0.00,0.00,VWS V14.01,2013-04-10 02:31:00,
2013-04-09 22:33:00,76.1,71.3,30.06,ENE,61,3.0,7.0,85,0.00,,FEW,0.00,0.00,VWS V14.01,2013-04-10 02:33:00,
2013-04-09 22:34:00,76.1,71.3,30.06,ENE,78,8.0,10.0,85,0.00,,FEW,0.00,0.00,VWS V14.01,2013-04-10 02:34:00,
2013-04-09 22:35:00,76.1,71.3,30.06,ENE,78,7.0,10.0,85,0.00,,FEW,0.00,0.00,VWS V14.01,2013-04-10 02:35:00,
2013-04-09 22:36:00,76.0,70.8,30.06,ESE,119,9.0,10.0,84,0.00,,FEW,0.00,0.00,VWS V14.01,2013-04-10 02:36:00,
2013-04-09 22:38:00,76.0,70.8,30.06,NNE,32,2.0,11.0,84,0.00,,FEW,0.00,0.00,VWS V14.01,2013-04-10 02:38:00,
2013-04-09 22:39:00,76.0,70.8,30.06,East,86,8.0,11.0,84,0.00,,FEW,0.00,0.00,VWS V14.01,2013-04-10 02:39:00,
2013-04-09 22:40:00,76.0,70.8,30.06,NE,40,3.0,11.0,84,0.00,,FEW,0.00,0.00,VWS V14.01,2013-04-10 02:40:00,
2013-04-09 22:41:00,76.0,70.8,30.06,East,81,3.0,11.0,84,0.00,,FEW,0.00,0.00,VWS V14.01,2013-04-10 02:41:00,
2013-04-09 22:44:00,76.1,71.3,30.06,NE,48,4.0,5.0,85,0.00,,FEW,0.00,0.00,VWS V14.01,2013-04-10 02:44:00,
2013-04-09 22:45:00,76.1,71.3,30.06,ENE,61,2.0,5.0,85,0.00,,FEW,0.00,0.00,VWS V14.01,2013-04-10 02:45:00,
2013-04-09 22:47:00,76.1,71.3,30.05,ENE,73,5.0,9.0,85,0.00,,FEW,0.00,0.00,VWS V14.01,2013-04-10 02:47:00,
2013-04-09 22:49:00,76.0,70.8,30.05,NE,42,3.0,9.0,84,0.00,,FEW,0.00,0.00,VWS V14.01,2013-04-10 02:49:00,
2013-04-09 22:50:00,76.0,70.8,30.05,ENE,65,10.0,10.0,84,0.00,,FEW,0.00,0.00,VWS V14.01,2013-04-10 02:50:00,
2013-04-09 22:52:00,76.0,70.8,30.05,SSE,147,5.0,11.0,84,0.00,,FEW,0.00,0.00,VWS V14.01,2013-04-10 02:52:00,
2013-04-09 22:54:00,76.0,70.8,30.05,East,84,6.0,10.0,84,0.00,,FEW,0.00,0.00,VWS V14.01,2013-04-10 02:54:00,
2013-04-09 22:55:00,75.9,70.7,30.05,NE,39,5.0,10.0,84,0.00,,FEW,0.00,0.00,VWS V14.01,2013-04-10 02:55:00,
2013-04-09 22:57:00,76.0,70.8,30.05,ENE,61,4.0,10.0,84,0.00,,FEW,0.00,0.00,VWS V14.01,2013-04-10 02:57:00,
2013-04-09 22:59:00,76.0,70.8,30.05,NE,45,3.0,10.0,84,0.00,,FEW,0.00,0.00,VWS V14.01,2013-04-10 02:59:00,
2013-04-09 23:00:00,76.0,70.8,30.05,NNE,15,3.0,10.0,84,0.00,,FEW,0.00,0.00,VWS V14.01,2013-04-10 03:00:00,
2013-04-09 23:02:00,76.0,70.8,30.07,ENE,78,8.0,10.0,84,0.00,,FEW,0.00,0.00,VWS V14.01,2013-04-10 03:02:00,
2013-04-09 23:04:00,76.0,70.8,30.07,East,87,9.0,11.0,84,0.00,,FEW,0.00,0.00,VWS V14.01,2013-04-10 03:04:00,
2013-04-09 23:05:00,76.0,70.8,30.07,SE,135,6.0,11.0,84,0.00,,FEW,0.00,0.00,VWS V14.01,2013-04-10 03:05:00,
2013-04-09 23:07:00,76.0,70.5,30.07,East,86,7.0,11.0,83,0.00,,FEW,0.00,0.00,VWS V14.01,2013-04-10 03:07:00,
2013-04-09 23:09:00,76.0,70.5,30.07,NE,48,2.0,11.0,83,0.00,,FEW,0.00,0.00,VWS V14.01,2013-04-10 03:09:00,
2013-04-09 23:10:00,76.0,70.5,30.07,East,100,5.0,11.0,83,0.00,,FEW,0.00,0.00,VWS V14.01,2013-04-10 03:10:00,
2013-04-09 23:12:00,76.1,70.6,30.07,ENE,61,8.0,11.0,83,0.00,,FEW,0.00,0.00,VWS V14.01,2013-04-10 03:12:00,
2013-04-09 23:14:00,76.1,70.6,30.07,East,80,5.0,10.0,83,0.00,,FEW,0.00,0.00,VWS V14.01,2013-04-10 03:14:00,
2013-04-09 23:15:00,76.1,70.6,30.07,SE,128,3.0,10.0,83,0.00,,FEW,0.00,0.00,VWS V14.01,2013-04-10 03:15:00,
2013-04-09 23:17:00,76.1,70.6,30.07,NE,46,7.0,11.0,83,0.00,,FEW,0.00,0.00,VWS V14.01,2013-04-10 03:17:00,
2013-04-09 23:19:00,76.1,70.6,30.07,East,80,6.0,13.0,83,0.00,,FEW,0.00,0.00,VWS V14.01,2013-04-10 03:19:00,
2013-04-09 23:20:00,76.1,70.6,30.07,NE,51,5.0,13.0,83,0.00,,FEW,0.00,0.00,VWS V14.01,2013-04-10 03:20:00,
2013-04-09 23:21:00,76.1,70.6,30.07,ENE,74,7.0,13.0,83,0.00,,FEW,0.00,0.00,VWS V14.01,2013-04-10 03:21:00,
2013-04-09 23:22:00,76.1,70.6,30.07,East,86,8.0,13.0,83,0.00,,FEW,0.00,0.00,VWS V14.01,2013-04-10 03:22:00,
2013-04-09 23:24:00,76.2,70.7,30.07,East,86,5.0,11.0,83,0.00,,FEW,0.00,0.00,VWS V14.01,2013-04-10 03:24:00,
2013-04-09 23:25:00,76.2,71.0,30.07,ESE,117,4.0,11.0,84,0.00,,FEW,0.00,0.00,VWS V14.01,2013-04-10 03:25:00,
2013-04-09 23:26:00,76.2,71.0,30.07,East,80,5.0,11.0,84,0.00,,FEW,0.00,0.00,VWS V14.01,2013-04-10 03:26:00,
2013-04-09 23:27:00,76.2,71.0,30.07,ENE,67,4.0,11.0,84,0.00,,FEW,0.00,0.00,VWS V14.01,2013-04-10 03:27:00,
2013-04-09 23:29:00,76.3,71.1,30.07,NE,51,4.0,11.0,84,0.00,,FEW,0.00,0.00,VWS V14.01,2013-04-10 03:29:00,
2013-04-09 23:30:00,76.3,71.1,30.07,NE,42,6.0,11.0,84,0.00,,FEW,0.00,0.00,VWS V14.01,2013-04-10 03:30:00,
2013-04-09 23:31:00,76.3,71.1,30.07,NE,52,3.0,11.0,84,0.00,,FEW,0.00,0.00,VWS V14.01,2013-04-10 03:31:00,
2013-04-09 23:32:00,76.3,71.1,30.07,East,98,7.0,12.0,84,0.00,,FEW,0.00,0.00,VWS V14.01,2013-04-10 03:32:00,
2013-04-09 23:34:00,76.3,71.1,30.07,ESE,106,2.0,9.0,84,0.00,,FEW,0.00,0.00,VWS V14.01,2013-04-10 03:34:00,
2013-04-09 23:35:00,76.3,71.1,30.07,ENE,76,4.0,9.0,84,0.00,,FEW,0.00,0.00,VWS V14.01,2013-04-10 03:35:00,
2013-04-09 23:36:00,76.3,71.1,30.07,ENE,71,2.0,9.0,84,0.00,,FEW,0.00,0.00,VWS V14.01,2013-04-10 03:36:00,
2013-04-09 23:37:00,76.3,71.1,30.07,ENE,74,3.0,9.0,84,0.00,,FEW,0.00,0.00,VWS V14.01,2013-04-10 03:37:00,
2013-04-09 23:39:00,76.4,71.2,30.07,NE,37,4.0,10.0,84,0.00,,FEW,0.00,0.00,VWS V14.01,2013-04-10 03:39:00,
2013-04-09 23:40:00,76.4,71.2,30.07,ENE,73,5.0,10.0,84,0.00,,FEW,0.00,0.00,VWS V14.01,2013-04-10 03:40:00,
2013-04-09 23:41:00,76.4,71.2,30.07,ENE,74,7.0,10.0,84,0.00,,FEW,0.00,0.00,VWS V14.01,2013-04-10 03:41:00,
2013-04-09 23:42:00,76.4,71.2,30.07,ENE,61,7.0,7.0,84,0.00,,FEW,0.00,0.00,VWS V14.01,2013-04-10 03:42:00,
2013-04-09 23:45:00,76.4,71.2,30.07,ENE,61,3.0,8.0,84,0.00,,FEW,0.00,0.00,VWS V14.01,2013-04-10 03:45:00,
2013-04-09 23:46:00,76.4,71.2,30.07,SE,132,9.0,9.0,84,0.00,,FEW,0.00,0.00,VWS V14.01,2013-04-10 03:46:00,
2013-04-09 23:47:00,76.4,71.2,30.07,East,90,6.0,9.0,84,0.00,,FEW,0.00,0.00,VWS V14.01,2013-04-10 03:47:00,
2013-04-09 23:50:00,76.4,71.2,30.07,East,97,2.0,9.0,84,0.00,,FEW,0.00,0.00,VWS V14.01,2013-04-10 03:50:00,
2013-04-09 23:51:00,76.4,71.6,30.07,SSE,153,4.0,9.0,85,0.00,,FEW,0.00,0.00,VWS V14.01,2013-04-10 03:51:00,
2013-04-09 23:52:00,76.5,71.7,30.07,East,84,3.0,3.0,85,0.00,,FEW,0.00,0.00,VWS V14.01,2013-04-10 03:52:00,
2013-04-09 23:55:00,76.5,71.7,30.07,SE,124,2.0,8.0,85,0.00,,FEW,0.00,0.00,VWS V14.01,2013-04-10 03:55:00,
2013-04-09 23:56:00,76.5,71.7,30.07,East,83,3.0,8.0,85,0.00,,FEW,0.00,0.00,VWS V14.01,2013-04-10 03:56:00,
2013-04-09 23:57:00,76.4,71.6,30.07,SE,136,2.0,10.0,85,0.00,,FEW,0.00,0.00,VWS V14.01,2013-04-10 03:57:00,